     2.10           OBSERVATION DATA    G (GPS)             RINEX VERSION / TYPE
teqc 2002Mar14 Lou Estey 20020315 16:28:42UTC               PGM / RUN BY / DATE
Solaris 2.7|Ultra 2|cc SC5.0|=+-|*Sparc                     COMMENT
BIT 2 OF LLI FLAGS DATA COLLECTED UNDER A/S CONDITION       COMMENT
GARNER PERMANENT GPS                                        MARKER NAME
GRNR                                                        MARKER NUMBER
-Unknown- -Unknown-                                         OBSERVER / AGENCY
14494 TRIMBLE 4000SSI NP 7.09 / SP 3.03                     REC # / TYPE / VERS
48760 -Unknown-                                             ANT # / TYPE
 -2416909.2963 -1453470.8173  5702197.6152                  APPROX POSITION XYZ
        0.0000        0.0000        0.0000                  ANTENNA: DELTA H/E/N
     1     1                                                WAVELENGTH FACT L1/2
     6    L1    L2    C1    P2    P1    D1                  # / TYPES OF OBSERV
SNR is mapped to RINEX snr flag value [1-9]                 COMMENT
L1: 3 -> 1; 8 -> 5; 40 -> 9                                 COMMENT
L2: 1 -> 1; 5 -> 5; 60 -> 9                                 COMMENT
  1997     9    17     0     0   30.0000000     GPS         TIME OF FIRST OBS
                                                            END OF HEADER
 97  9 17  0  0 30.0000000  0  8G29G14G25G16G 7G30G 4G18
   5149200.70256  -9555793.14856  21428319.3134   21428322.8634
     -2313.9534
   1324434.29757 -13375440.64157  20675516.4384   20675521.3014
     -1597.9224
   -737529.87356  -8331130.78856  22239405.3914   22239409.6684
     -1433.5624
  -9696339.65157  -8101273.10257  20825489.6334   20825494.8484
      1005.9224
   9284005.21652   1535513.17755  24365076.9064   24365082.8244
     -3251.4374
   -610490.60655  -1609411.73055  24005111.4774   24005115.6954
     -1012.2814
  -8314531.95356  -6431279.25356  22602759.4304   22602764.2584
      1751.2344
  -6434876.40155  -4952977.15955  23491410.2974   23491415.5594
      3309.8914
 97  9 17  0  1  0.0000000  0  8G29G14G25G16G 7G30G 4G18
   5218823.06546  -9501541.96846  21441568.5084   21441572.1054
     -2327.6414
   1372620.01747 -13337893.33547  20684685.6724   20684690.5354
     -1614.5004
   -694241.54346  -8297399.62346  22247643.2894   22247647.3554
     -1452.5624
  -9726275.53247  -8124599.76046  20819793.0944   20819798.5314
       989.6254
   9381696.76142   1611636.47245  24383666.3054   24383672.3634
     -3261.2974
   -579805.12545  -1585500.95545  24010950.8674   24010956.1524
     -1033.5474
  -8366824.92146  -6472026.99746  22592808.7584   22592813.4574
      1734.8594
  -6534081.11245  -5030279.49445  23472532.6024   23472537.2304
      3303.6564
 97  9 17  0  1 30.0000000  0  8G29G14G25G16G 7G30G 4G18
   5288845.52046  -9446979.02046  21454892.9384   21454896.6884
     -2340.3444
   1421297.43247 -13299962.88447  20693948.9224   20693953.5514
     -1630.6564
   -650377.96346  -8263220.22446  22255989.7734   22255994.1914
     -1471.4374
  -9755726.68347  -8147548.70347  20814188.8444   20814194.0944
       973.9064
   9479669.37242   1687978.71245  24402309.9614   24402318.5434
     -3270.0164
   -548490.17145  -1561099.71845  24016909.4304   24016913.2854
     -1053.9534
  -8418625.97346  -6512391.42846  22582950.9614   22582955.5664
      1718.6884
  -6633094.77945  -5107432.94845  23453691.2424   23453695.9654
      3297.3754
 97  9 17  0  2  0.0000000  0  8G29G14G25G16G 7G30G 4G18
   5359259.26146  -9392111.17946  21468292.1334   21468295.8714
     -2353.5784
   1470480.36247 -13261638.53547  20703308.2664   20703312.9064
     -1647.8754
   -605946.69246  -8228598.45946  22264445.5234   22264449.6604
     -1490.3124
  -9784691.89147  -8170118.99147  20808677.0234   20808682.1914
       957.4694
   9577914.18042   1764533.06845  24421005.0084   24421009.4494
     -3279.2504
   -516556.79345  -1536216.56245  24022986.1254   24022990.9184
     -1074.6094
  -8469933.54846  -6552371.35946  22573187.8054   22573192.5044
      1702.2194
  -6731916.97845  -5184437.22645  23434884.7274   23434890.1764
      3291.0474
 97  9 17  0  2 30.0000000  0  8G29G14G25G16G 7G30G 4G18
   5430065.71646  -9336937.32246  21481766.3834   21481770.1804
     -2366.9064
   1520170.98747 -13222918.56547  20712764.4924   20712769.3204
     -1664.6874
   -560957.76746  -8193542.17146  22273006.4614   22273010.8444
     -1508.9694
  -9813177.28947  -8192315.40247  20803256.3524   20803261.3554
       941.6564
   9676424.00643   1841293.86745  24439753.1094   24439756.2624
     -3287.9064
   -484015.40745  -1510859.64645  24029178.0474   24029184.8324
     -1094.6874
  -8520757.64446  -6591974.52746  22563516.1724   22563520.8594
      1686.0634
  -6830549.39445  -5261293.61845  23416116.7114   23416122.2304
      3284.6254
 97  9 17  0  3  0.0000000  0  8G29G14G25G16G 7G30G 4G18
   5501281.19246  -9281444.76446  21495318.3754   21495321.9024
     -2380.8124
   1570361.23847 -13183809.28247  20722314.8674   20722319.5784
     -1681.3284
   -515405.88546  -8158047.21246  22281674.2344   22281678.6764
     -1527.8754
  -9841184.31147  -8214139.05047  20797926.8914   20797931.8594
       925.4064
   9775186.00842   1918251.20345  24458545.8364   24458557.4534
     -3296.3284
   -450868.34045  -1485030.78745  24035486.6724   24035491.0204
     -1115.1414
  -8571093.16746  -6631197.00746  22553937.7114   22553942.7504
      1669.5634
  -6928990.11345  -5338000.61045  23397383.0704   23397388.6134
      3278.0314
 97  9 17  0  3 30.0000000  0  8G29G14G25G16G 7G30G 4G18
   5572918.52846  -9225623.46946  21508950.2344   21508954.1374
     -2395.2974
   1621058.58747 -13144304.86347  20731962.4224   20731966.9694
     -1698.6874
   -469282.70246  -8122107.07846  22290451.3054   22290455.5004
     -1547.0314
  -9868696.73447  -8235577.30247  20792690.9144   20792696.0594
       908.6094
   9874218.74542   1995419.53545  24477390.8674   24477397.0664
     -3306.0624
   -417101.49045  -1458718.98645  24041912.1024   24041917.6914
     -1136.0784
  -8620923.01446  -6670025.44946  22544454.9924   22544459.3164
      1652.3284
  -7027223.15745  -5414545.80346  23378690.3674   23378694.9494
      3270.8444
 97  9 17  0  4  0.0000000  0  8G29G14G25G16G 7G30G 4G18
   5644992.64746  -9169461.82646  21522665.3984   21522669.1724
     -2409.7344
   1672265.53047 -13104403.35647  20741706.3364   20741711.2344
     -1715.0624
   -422596.92346  -8085728.55946  22299335.5864   22299339.6764
     -1565.5624
  -9895708.27247  -8256625.24947  20787551.0704   20787556.1914
       892.0944
   9973539.37442   2072812.12045  24496290.5084   24496299.3134
     -3315.3754
   -382713.15745  -1431922.86545  24048455.9844   24048460.4024
     -1156.5004
  -8670246.05946  -6708458.98346  22535069.6724   22535074.1954
      1635.7974
  -7125253.73045  -5490933.22446  23360035.7504   23360041.0704
      3264.2194
 97  9 17  0  4 30.0000000  0  8G29G14G25G16G 7G30G 4G18
   5717488.27646  -9112971.73846  21536461.2894   21536465.3324
     -2423.8284
   1723945.39747 -13064133.33747  20751540.9064   20751545.5944
     -1730.8444
   -375360.04246  -8048920.61146  22308324.2974   22308328.4344
     -1584.1724
  -9922235.15147  -8277295.54047  20782503.3984   20782508.5554
       875.7194
  10073119.50742   2150407.05445  24515239.1414   24515243.9104
     -3323.9694
   -347719.32845  -1404654.95445  24055114.8204   24055121.3594
     -1177.1414
  -8719083.08446  -6746513.78946  22525775.9454   22525780.5984
      1619.3754
  -7223084.62345  -5567165.04146  23341419.6414   23341424.3164
      3257.4224
 97  9 17  0  5  0.0000000  0  7G29G14G25G16G30G 4G18
   5790407.44546  -9056151.61146  21550337.1484   21550340.8054
     -2436.8754
   1776108.55947 -13023486.72247  20761467.2814   20761471.9924
     -1746.3594
   -327563.11546  -8011676.26546  22317419.8134   22317423.9964
     -1601.7664
  -9948264.89147  -8297578.44647  20777550.1174   20777555.3674
       860.0944
   -312091.20845  -1376892.79345  24061894.6024   24061899.5704
     -1197.8284
  -8767416.79946  -6784176.41146  22516578.0634   22516582.1054
      1603.1884
  -7320711.59245  -5643237.95046  23322841.4224   23322847.0004
      3251.4064
 97  9 17  0  5 30.0000000  0  7G29G14G25G16G30G 4G18
   5863713.86446  -8999029.73046  21564286.9224   21564290.7664
     -2449.7974
   1828751.87847 -12982465.95847  20771485.0234   20771489.5354
     -1762.8284
   -279231.63746  -7974015.38646  22326617.3134   22326621.7774
     -1619.8914
  -9973819.24647  -8317490.92847  20772687.1094   20772692.2074
       843.9694
   -275834.77045  -1348641.03245  24068793.7034   24068799.2464
     -1218.7974
  -8815250.38446  -6821449.31646  22507475.8054   22507480.0824
      1586.0314
  -7418144.25545  -5719159.45646  23304300.2734   23304305.5474
      3244.5004
 97  9 17  0  6  0.0000000  0  7G29G14G25G16G30G 4G18
   5937395.77146  -8941615.27046  21578307.8834   21578311.7734
     -2462.0784
   1881885.30247 -12941063.29247  20781596.0234   20781600.4774
     -1779.1874
   -230361.18446  -7935934.52446  22335916.9304   22335920.7854
     -1637.9534
  -9998893.46647  -8337029.27647  20767915.6414   20767921.0084
       827.8284
   -238961.47345  -1319908.56545  24075811.9304   24075815.5744
     -1239.1874
  -8862574.69746  -6858325.38046  22498470.3834   22498474.5664
      1568.9384
  -7515366.92745  -5794917.33846  23285799.8054   23285805.4304
      3237.0634
 97  9 17  0  6 30.0000000  0  7G29G14G25G16G30G 4G18
   6011448.62746  -8883911.74746  21592400.1804   21592403.7304
     -2474.2664
   1935517.13047 -12899272.26047  20791801.6094   20791806.2154
     -1795.8594
   -180946.56946  -7897429.63846  22345319.9144   22345324.4384
     -1655.9064
 -10023471.85547  -8356181.26047  20763238.5084   20763243.8874
       811.0944
   -201466.79245  -1290691.92645  24082945.1724   24082951.3364
     -1260.0004
  -8909366.90446  -6894786.82546  22489566.1254   22489570.7774
      1550.8754
  -7612356.78245  -5870493.80746  23267342.8364   23267347.8874
      3229.4694
 97  9 17  0  7  0.0000000  0  7G29G14G25G16G30G 4G18
   6085862.50846  -8825926.91246  21606559.8524   21606563.4964
     -2486.5164
   1989647.18147 -12857093.00346  20802102.0164   20802106.9494
     -1812.6094
   -131006.98846  -7858515.68246  22354823.5474   22354828.1884
     -1673.3284
 -10047551.07147  -8374944.27547  20758656.2424   20758661.3754
       794.2034
   -163355.42045  -1260994.77545  24090198.3754   24090204.0824
     -1280.5314
  -8955617.52946  -6930826.26046  22480765.0164   22480769.0004
      1532.6254
  -7709121.34245  -5945894.73046  23248929.3134   23248934.4694
      3221.5314
 97  9 17  0  7 30.0000000  0  7G29G14G25G16G30G 4G18
   6160647.34246  -8767653.03046  21620791.6644   21620795.5784
     -2498.7974
   2044273.93547 -12814526.70446  20812497.3284   20812502.2734
     -1828.7504
    -80536.30246  -7819187.89746  22364427.2194   22364431.8134
     -1690.8124
 -10071108.54447  -8393300.74447  20754173.7424   20754178.6884
       776.8134
   -124639.74145  -1230826.72445  24097564.9614   24097569.5904
     -1299.8754
  -9001321.60246  -6966439.80946  22472067.5704   22472072.4344
      1514.8914
  -7805644.32445  -6021107.40646  23230561.6954   23230566.4654
      3213.7504
 97  9 17  0  8  0.0000000  0  7G29G14G25G16G30G 4G18
   6235811.91246  -8709083.24446  21635095.1884   21635098.8674
     -2512.1094
   2099384.12447 -12771583.70946  20822984.3914   20822988.9964
     -1845.1094
    -29547.15246  -7779456.10346  22374130.4614   22374134.7504
     -1708.3124
 -10094147.73247  -8411253.35047  20749789.3444   20749794.5944
       759.2504
    -85340.77345  -1200204.12545  24105043.3204   24105048.5354
     -1320.2344
  -9046499.94046  -7001643.70246  22463470.1484   22463475.1054
      1497.1254
  -7901934.69445  -6096138.80846  23212237.9844   23212243.1174
      3205.8134
 97  9 17  0  8 30.0000000  0  7G29G14G25G16G30G 4G18
   6311384.16046  -8650195.79146  21649475.8204   21649479.7344
     -2525.4844
   2154986.40847 -12728257.25846  20833565.8524   20833570.3874
     -1861.2974
     21967.06146  -7739315.15946  22383933.2664   22383937.1564
     -1725.4064
 -10116661.34647  -8428796.42347  20745505.0864   20745510.2544
       742.2194
    -45411.13344  -1169090.11745  24112642.0394   24112647.2194
     -1341.1094
  -9091144.02046  -7036431.27946  22454974.1094   22454979.0084
      1479.9064
  -7997995.97445  -6170991.71745  23193957.8054   23193962.5744
      3198.7974
 97  9 17  0  9  0.0000000  0  7G29G14G25G16G30G 4G18
   6387362.87546  -8590991.60646  21663933.7504   21663937.8524
     -2539.5944
   2211085.83547 -12684543.42847  20844240.7664   20844245.1954
     -1878.4694
     73998.17046  -7698771.44546  22393834.2504   22393838.7734
     -1743.2664
 -10138668.55247  -8445944.88447  20741317.5784   20741322.6414
       725.1094
     -4860.54045  -1137492.26145  24120358.9224   24120363.6454
     -1361.9374
  -9135278.40546  -7070821.68946  22446576.5084   22446580.5984
      1462.6094
  -8093841.40345  -6245676.42946  23175719.3204   23175723.6684
      3191.1724
 97  9 17  0  9 30.0000000  0  7G29G14G25G16G30G 4G18
   6463756.87546  -8531463.82846  21678470.9144   21678475.1564
     -2553.3124
   2267699.07947 -12640429.21346  20855013.9224   20855018.4344
     -1895.8284
    126569.84046  -7657806.53046  22403838.5554   22403843.0314
     -1761.3754
 -10160169.05747  -8462698.52247  20737226.2504   20737231.2664
       708.3284
     36298.51044  -1105420.33045  24128189.8914   24128194.0394
     -1382.0004
  -9178903.31046  -7104815.11246  22438275.3524   22438279.7584
      1445.7504
  -8189466.48445  -6320189.44946  23157522.2734   23157527.1724
      3183.7814
 97  9 17  0 10  0.0000000  0  7G29G14G25G16G30G 4G18
   6540543.57546  -8471630.04446  21693083.2974   21693087.5394
     -2565.7814
   2324815.95147 -12595922.56546  20865883.0474   20865887.7464
     -1911.9844
    179673.50946  -7616427.05346  22413944.0314   22413948.0984
     -1779.1564
 -10181186.64247  -8479075.85747  20733226.3524   20733231.4024
       692.6884
     78047.76944  -1072888.43845  24136135.9454   24136142.2624
     -1401.4694
  -9222034.74946  -7138424.02546  22430067.1724   22430071.6254
      1429.4224
  -8284880.97545  -6394538.34846  23139365.3524   23139370.6254
      3177.1094
 97  9 17  0 10 30.0000000  0  7G29G14G25G16G30G 4G18
   6617702.19446  -8411506.46446  21707766.0234   21707770.1484
     -2577.7344
   2382421.45847 -12551035.16547  20876844.9224   20876849.5634
     -1928.2344
    233328.20046  -7574618.21046  22424154.3674   22424158.7384
     -1797.7504
 -10201719.78647  -8495075.70647  20729319.1724   20729324.4574
       676.3444
    120375.28945  -1039905.97545  24144191.2664   24144197.4654
     -1419.9064
  -9264661.50446  -7171639.67546  22421956.1334   22421959.9414
      1412.5944
  -8380085.30245  -6468723.49146  23121249.3204   23121253.7504
      3169.8444
 97  9 17  0 11  0.0000000  0  7G29G14G25G16G30G 4G18
   6695219.67646  -8351103.24246  21722517.5394   21722521.8404
     -2589.7344
   2440520.91647 -12505762.86746  20887900.9924   20887905.7854
     -1944.4694
    287558.52246  -7532360.82546  22434473.7194   22434477.5984
     -1817.3594
 -10221748.72247  -8510682.66647  20725507.9384   20725512.7664
       659.2344
    163253.37744  -1006494.49645  24152349.5944   24152355.8874
     -1438.4374
  -9306775.79346  -7204455.99646  22413941.4224   22413945.6414
      1395.2034
  -8475050.40745  -6542722.23446  23103177.9774   23103182.2544
      3161.6254
 97  9 17  0 11 30.0000000  0  7G29G14G25G16G30G 4G18
   6773079.93646  -8290432.92346  21737333.4694   21737337.7114
     -2600.6094
   2499083.50647 -12460129.68846  20899045.2424   20899049.7774
     -1959.2974
    342366.43346  -7489653.38246  22444903.1724   22444907.7424
     -1836.0004
 -10241271.54947  -8525895.25847  20721792.5864   20721797.6844
       642.6884
    206691.93944   -972646.28545  24160615.5314   24160621.0744
     -1457.2814
  -9348367.52946  -7236865.11746  22406026.5704   22406030.8954
      1377.8444
  -8569783.34345  -6616540.07646  23085150.8914   23085156.3754
      3154.1724
 97  9 17  0 12  0.0000000  0  7G29G14G25G16G30G 4G18
   6851266.43346  -8229508.38946  21752211.6254   21752215.8094
     -2611.8754
   2558090.82147 -12414149.96446  20910273.4064   20910277.9184
     -1974.7664
    397732.24146  -7446511.18546  22455438.9694   22455443.1174
     -1855.1094
 -10260298.18847  -8540721.20147  20718171.9844   20718177.2114
       625.7194
    250708.91044   -938347.31645  24168992.5864   24168997.6134
     -1477.3594
  -9389430.63446  -7268862.33246  22398213.0474   22398217.3014
      1359.5314
  -8664288.80045  -6690180.65746  23067166.4304   23067171.8204
      3146.1884
 97  9 17  0 12 30.0000000  0  7G29G14G25G16G30G 4G18
   6929787.76146  -8168322.95046  21767153.7424   21767157.6334
     -2623.4534
   2617570.71647 -12367802.00047  20921591.9844   20921597.0234
     -1991.0314
    453649.05646  -7402939.66646  22466080.1024   22466084.4494
     -1873.0164
 -10278823.00947  -8555156.12647  20714646.9224   20714652.0664
       608.9224
    295325.29245   -903581.34145  24177482.4144   24177488.3554
     -1497.5164
  -9429952.96846  -7300438.16546  22390501.9614   22390506.1564
      1341.6414
  -8758566.69645  -6763643.92246  23049225.4924   23049230.6134
      3138.6094
 97  9 17  0 13  0.0000000  0  7G29G14G25G16G30G 4G18
   7008672.80446  -8106854.09546  21782165.1884   21782168.7734
     -2635.7034
   2677547.01747 -12321067.23246  20933005.2194   20933010.1764
     -2007.2504
    510097.64946  -7358953.77046  22476821.3204   22476825.9384
     -1890.0314
 -10296842.42847  -8569197.22547  20711217.5234   20711222.8444
       592.4694
    340557.88744   -868335.20745  24186089.2194   24186096.9344
     -1518.0474
  -9469932.83546  -7331591.29746  22382893.2734   22382898.1024
      1323.4844
  -8852616.08945  -6836929.10246  23031329.2814   23031334.2154
      3131.5314
 97  9 17  0 13 30.0000000  0  8G24G29G14G25G16G30G 4G18
    -51803.33353                  24799907.0784
      3044.9844
   7087931.72546  -8045093.90846  21797247.7114   21797251.9414
     -2648.6094
   2738017.44947 -12273947.41746  20944512.4924   20944517.3204
     -2024.6564
    567051.68946  -7314573.99746  22487659.1644   22487663.6414
     -1907.1564
 -10314366.98047  -8582852.71747  20707883.0634   20707888.2894
       575.4844
    386408.85244   -832607.23045  24194813.6024   24194818.6174
     -1538.8284
  -9509353.32446  -7362308.55546  22375392.4384   22375397.2544
      1304.3284
  -8946450.12745  -6910046.50646  23013473.0554   23013477.8484
      3123.5474
 97  9 17  0 14  0.0000000  0  8G24G29G14G25G16G30G 4G18
   -143047.93143                  24782543.8444
      3037.6724
   7167583.57146  -7983027.54946  21812405.1954   21812409.1684
     -2661.8444
   2799014.23647 -12226417.46246  20956120.0944   20956124.8984
     -2042.0004
    624512.78446  -7269799.14046  22498594.1094   22498598.2584
     -1923.8284
 -10331381.74847  -8596110.96947  20704645.1884   20704650.4964
       558.5314
    432863.24544   -796409.02545  24203653.8984   24203658.3754
     -1558.3124
  -9548209.37246  -7392585.98746  22367998.3054   22368002.9454
      1285.8134
  -9040039.11845  -6982972.95246  22995663.2894   22995668.6804
      3115.4534
 97  9 17  0 14 30.0000000  0  8G24G29G14G25G16G30G 4G18
   -234055.29143     -2359.07655  24765225.2814   24765234.3444
      3029.5634
   7247652.53346  -7920636.15746  21827641.8054   21827646.2114
     -2675.9224
   2860533.19647 -12178480.61847  20967826.4454   20967831.1914
     -2059.0164
    682477.18246  -7224632.08146  22509624.4614   22509628.9144
     -1940.5314
 -10347872.02447  -8608960.53047  20701507.0704   20701512.3204
       540.7504
    479907.34444   -759751.25945  24212607.2504   24212613.1334
     -1577.7814
  -9586497.29046  -7422420.70746  22360712.3054   22360717.3094
      1266.8284
  -9133372.83545  -7055700.48546  22977903.1334   22977907.8094
      3106.8284
 97  9 17  0 15  0.0000000  0  8G24G29G14G25G16G30G 4G18
   -324827.46843    -73090.61945  24747952.0944   24747959.1994
      3021.9224
   7328121.50246  -7857933.08446  21842954.2034   21842958.5514
     -2688.6414
   2922540.58147 -12130163.17846  20979626.4144   20979631.0314
     -2074.8754
    740944.23546  -7179073.35546  22520750.3204   22520754.9144
     -1957.2974
 -10363829.27447  -8621394.74646  20698470.7504   20698475.7664
       523.0004
    527525.94944   -722645.93545  24221669.3054   24221673.8404
     -1596.9694
  -9624220.65046  -7451815.53746  22353533.8594   22353538.2194
      1248.0004
  -9226448.01345  -7128226.54946  22960190.8524   22960196.1724
      3098.1094
 97  9 17  0 15 30.0000000  0  8G24G29G14G25G16G30G 4G18
   -415371.34144   -143644.32945  24730723.3054   24730727.2664
      3014.5784
   7408964.34246  -7794938.67246  21858337.8134   21858342.1254
     -2700.4534
   2985021.86547 -12081476.46946  20991515.8284   20991520.5744
     -2090.2344
    799917.94746  -7133119.82146  22531971.8674   22531976.3794
     -1973.9224
 -10379252.20847  -8633412.61147  20695535.7814   20695541.2194
       505.5164
    575727.15445   -685086.54145  24230841.3204   24230845.6564
     -1616.2034
  -9661387.73846  -7480776.89246  22346461.1954   22346465.7194
      1230.3444
  -9319261.68245  -7200548.86046  22942529.1174   22942534.1094
      3089.6884
 97  9 17  0 16  0.0000000  0  8G24G29G14G25G16G30G 4G18
   -505687.66843   -214020.67545  24713535.8594   24713541.9304
      3006.4064
   7490164.03346  -7731666.19546  21873790.0084   21873793.6994
     -2712.8914
   3047958.28547 -12032435.10846  21003492.5234   21003497.3284
     -2105.6094
    859390.53846  -7086777.56046  22543289.9144   22543294.3094
     -1991.1094
 -10394149.73947  -8645021.07446  20692701.0084   20692706.1524
       487.5634
    624518.90845   -647067.02045  24240127.1174   24240133.2114
     -1636.9534
  -9698027.59246  -7509327.40546  22339488.8054   22339493.0944
      1212.1254
  -9411823.53045  -7272674.93446  22924915.3364   22924921.1724
      3081.0474
 97  9 17  0 16 30.0000000  0  8G24G29G14G25G16G30G 4G18
   -595776.05343   -284219.34445  24696391.3834   24696399.0394
      2999.3914
   7571708.36846  -7668125.16746  21889307.6644   21889311.7664
     -2723.3124
   3111340.81047 -11983046.13346  21015553.8284   21015558.6214
     -2120.0624
    919363.25046  -7040045.59946  22554702.3284   22554706.9574
     -2007.3284
 -10408530.36647  -8656226.75146  20689964.4614   20689969.6884
       470.9844
    673931.31944   -608563.87345  24249528.5634   24249536.2304
     -1657.3594
  -9734137.97546  -7537465.36246  22332617.4534   22332621.6254
      1195.0784
  -9504145.74145  -7344614.29346  22907346.7274   22907351.6844
      3073.6414
 97  9 17  0 17  0.0000000  0  8G24G29G14G25G16G30G 4G18
   -685641.14043   -354244.04545  24679291.5474   24679295.5554
      2991.6564
   7653570.40246  -7604336.59146  21904885.7424   21904889.7854
     -2734.1254
   3175170.70247 -11933308.56346  21027700.2814   21027705.0164
     -2135.1094
    979844.31346  -6992917.50646  22566211.3134   22566215.6254
     -2024.3754
 -10422402.95647  -8667036.56247  20687324.5004   20687329.5984
       454.1414
    723976.00544   -569567.99545  24259051.7034   24259057.2814
     -1678.7034
  -9769719.11846  -7565190.91846  22325846.4924   22325850.3954
      1177.1094
  -9596229.04445  -7416367.48046  22889823.7344   22889828.7504
      3065.3444
 97  9 17  0 17 30.0000000  0  8G24G29G14G25G16G30G 4G18
   -775269.16842   -424084.09845  24662235.8754   24662246.0864
      2983.5634
   7735766.28046  -7540287.87346  21920526.6804   21920530.7584
     -2745.5164
   3239452.51646 -11883218.84646  21039932.4844   21039937.2774
     -2150.3124
   1040831.71346  -6945394.86246  22577816.5314   22577821.0554
     -2041.4224
 -10435780.26447  -8677460.43146  20684778.7974   20684783.7774
       437.7194
    774646.88343   -530084.19245  24268693.4534   24268697.6374
     -1699.1094
  -9804756.40946  -7592492.69546  22319178.7504   22319182.9804
      1158.6724
  -9688062.77545  -7487926.19946  22872348.8364   22872354.0634
      3056.9064
 97  9 17  0 18  0.0000000  0  8G24G29G14G25G16G30G 4G18
   -864655.16642   -493735.44445  24645226.7274   24645233.5594
      2975.6094
   7818296.05946  -7475978.96346  21936231.3134   21936235.5314
     -2756.3594
   3304185.71547 -11832777.39846  21052250.6094   21052255.3204
     -2165.1724
   1102328.14146  -6897475.58546  22589519.5474   22589523.8954
     -2058.2664
 -10448668.10247  -8687502.90046  20682326.1954   20682331.2584
       421.6254
    825912.66244   -490136.85945  24278449.3984   24278454.7074
     -1718.2664
  -9839235.27146  -7619359.33246  22312617.8914   22312622.5314
      1139.9534
  -9779642.51045  -7559287.00446  22854920.9224   22854926.3594
      3048.5634
 97  9 17  0 18 30.0000000  0  8G24G29G14G25G16G30G 4G18
   -953785.25043   -563187.41445  24628265.2034   24628272.5434
      2966.6884
   7901162.84346  -7411407.45846  21952000.9614   21952005.0044
     -2767.7194
   3369382.21947 -11781974.93646  21064657.7194   21064662.5124
     -2180.8754
   1164347.42046  -6849148.89046  22601321.1724   22601325.7774
     -2075.9694
 -10461055.50047  -8697155.41146  20679968.9384   20679974.0004
       404.4384
    877744.12444   -449748.75445  24288313.5394   24288317.5124
     -1736.5784
  -9873137.30946  -7645776.49646  22306166.2664   22306170.6844
      1120.5164
  -9870956.22545  -7630440.50446  22837544.9304   22837549.9454
      3039.4384
 97  9 17  0 19  0.0000000  0  8G24G29G14G25G16G30G 4G18
  -1042651.40442   -632433.74345  24611353.9064   24611359.9884
      2957.6724
   7984364.73246  -7346574.83546  21967833.5314   21967837.8554
     -2779.2664
   3435039.09947 -11730813.73646  21077151.0944   21077155.7344
     -2196.4224
   1226890.12446  -6800414.33046  22613223.0784   22613227.3914
     -2093.4224
 -10472928.78647  -8706407.31846  20677709.8054   20677714.9964
       387.0634
    930102.68944   -408949.89245  24298276.0944   24298281.0864
     -1753.8284
  -9906465.36246  -7671746.40646  22299824.5084   22299829.1134
      1101.4224
  -9962006.39845  -7701388.68146  22820218.5634   22820223.4024
      3030.4694
 97  9 17  0 19 30.0000000  0  8G24G29G14G25G16G30G 4G18
  -1131239.36442   -701463.27345  24594496.1334   24594503.6724
      2948.8594
   8067929.45246  -7281459.47946  21983735.4694   21983739.5824
     -2791.0944
   3501189.37047 -11679268.07946  21089739.3594   21089744.0594
     -2213.0784
   1289966.38646  -6751264.01646  22625225.9384   22625230.2154
     -2111.1564
 -10484262.37747  -8715238.68446  20675552.8444   20675558.0354
       369.0314
    982982.89944   -367744.54245  24308338.8914   24308342.1254
     -1771.1724
  -9939209.59146  -7697261.38646  22293593.3284   22293597.4064
      1082.1884
 -10052778.38145  -7772120.05346  22802945.7584   22802951.0664
      3021.7034
 97  9 17  0 20  0.0000000  0  8G24G29G14G25G16G30G 4G18
  -1219571.35241   -770293.40045  24577687.2034   24577692.9574
      2940.2344
   8151839.07546  -7216075.37746  21999702.8984   21999706.9534
     -2802.7344
   3567835.00347 -11627336.42346  21102421.5784   21102426.3364
     -2229.5784
   1353563.55446  -6701707.79346  22637328.2894   22637332.4264
     -2128.2194
 -10495059.02647  -8723651.65746  20673498.6174   20673503.7734
       351.1254
   1036389.96144   -326128.67545  24318502.0394   24318505.9534
     -1789.0624
  -9971390.35946  -7722337.30446  22287469.5234   22287473.4264
      1063.5474
 -10143295.10545  -7842652.53146  22785720.5784   22785725.9454
      3012.9694
 97  9 17  0 20 30.0000000  0  8G24G29G14G25G16G30G 4G18
  -1307659.57242   -838933.44045  24560925.1804   24560927.7114
      2932.0634
   8236091.50746  -7150424.13746  22015735.8054   22015739.7074
     -2814.3754
   3634963.24447 -11575028.70646  21115195.6484   21115200.3954
     -2245.9374
   1417653.71146  -6651767.42446  22649523.8834   22649527.9264
     -2144.7344
 -10505326.26147  -8731652.09847  20671544.7344   20671550.0084
       333.1254
   1090330.44444   -284097.16245  24328766.1954   24328769.7114
     -1807.4844
 -10003024.16146  -7746987.00946  22281449.8524   22281453.6604
      1045.1254
 -10233562.57845  -7912990.78346  22768543.0004   22768547.5234
      3004.4384
 97  9 17  0 21  0.0000000  0  8G24G29G14G25G16G30G 4G18
  -1395504.40942   -907384.00245  24544208.3284   24544213.6484
      2924.3444
   8320695.68846  -7084498.82046  22031835.0864   22031839.0824
     -2825.9064
   3702579.64347 -11522340.61246  21128062.5314   21128067.1484
     -2261.7664
   1482235.50646  -6601443.96046  22661813.1804   22661817.7734
     -2160.6414
 -10515062.46247  -8739238.74447  20669691.9144   20669697.2814
       316.1094
   1144842.19944   -241620.49945  24339139.3444   24339144.4534
     -1826.6724
 -10034110.38446  -7771210.03646  22275534.3284   22275538.2774
      1027.2504
 -10323568.50346  -7983125.22846  22751415.4064   22751420.1054
      2995.8754
 97  9 17  0 21 30.0000000  0  8G24G29G14G25G16G30G 4G18
  -1483109.25642   -975647.42145  24527538.3524   24527546.4414
      2916.0314
   8405657.18546  -7018295.07846  22048002.4844   22048006.6804
     -2837.8754
   3770677.61447 -11469277.26446  21141021.2194   21141026.2344
     -2277.6414
   1547299.21946  -6550744.98646  22674194.7664   22674199.1844
     -2176.8594
 -10524287.02547  -8746426.71146  20667936.7734   20667942.1054
       299.0004
   1199951.28744   -198678.36045  24349627.7664   24349633.5904
     -1847.2344
 -10064642.28746  -7795001.12646  22269724.7194   22269728.9614
      1008.3914
 -10413303.91145  -8053048.88446  22734339.0234   22734344.1684
      2986.6564
 97  9 17  0 22  0.0000000  0  8G24G29G14G25G16G30G 4G18
  -1570455.10942  -1043709.06845  24510917.1884   24510922.4844
      2906.8594
   8490970.80346  -6951816.94846  22064237.5634   22064241.9924
     -2849.7344
   3839224.75046 -11415863.92346  21154065.1884   21154070.0864
     -2292.1094
   1612850.68946  -6499665.94246  22686668.6954   22686673.7114
     -2193.3914
 -10532999.60047  -8753215.72546  20666278.4224   20666283.3794
       281.7034
   1255675.58843   -155256.86045  24360230.9694   24360237.6374
     -1867.6254
 -10094613.40146  -7818355.23046  22264020.5634   22264025.1094
       989.4844
 -10502754.97845  -8122750.97546  22717317.4774   22717322.3054
      2976.5314
 97  9 17  0 22 30.0000000  0  8G24G29G14G25G16G30G 4G18
  -1657519.03842  -1111551.02545  24494348.5394   24494354.4804
      2897.2034
   8576641.96946  -6885060.20546  22080540.4224   22080544.3594
     -2861.7344
   3908209.82946 -11362109.32346  21167192.8204   21167197.7774
     -2307.1564
   1678910.85946  -6448190.48746  22699239.7194   22699244.3834
     -2210.9224
 -10541180.05647  -8759590.11046  20664721.8524   20664727.0664
       263.4064
   1312009.70443   -111360.16645  24370951.4064   24370956.9614
     -1888.1724
 -10124004.91646  -7841257.70246  22258427.9064   22258431.9494
       969.7664
 -10591899.38145  -8192214.12246  22700353.6094   22700358.7544
      2966.3134
 97  9 17  0 23  0.0000000  0  8G24G29G14G25G16G30G 4G18
  -1744300.95642  -1179173.24345  24477834.5634   24477838.7704
      2888.3284
   8662656.95846  -6818035.56346  22096908.1094   22096912.4804
     -2872.5004
   3977632.82546 -11308013.49246  21180403.2194   21180408.2704
     -2321.0004
   1745486.05446  -6396313.73646  22711908.4614   22711912.8324
     -2227.2974
 -10548824.60347  -8765546.89646  20663267.2894   20663272.2114
       246.1094
   1368942.32043    -66997.12045  24381784.8594   24381789.8164
     -1907.1414
 -10152817.72446  -7863709.22846  22252945.6094   22252949.3954
       950.9384
 -10680751.25945  -8261449.31646  22683446.1884   22683451.4264
      2957.0944
 97  9 17  0 23 30.0000000  0  8G24G29G14G25G16G30G 4G18
  -1830802.85043  -1246577.29045  24461375.1414   24461380.1914
      2878.5634
   8749006.46646  -6750750.24246  22113340.0394   22113344.1414
     -2883.9534
   4047489.64646 -11253579.61046  21193696.6094   21193701.3324
     -2335.9844
   1812563.69946  -6344045.45746  22724672.8284   22724677.1414
     -2244.4064
 -10555923.72547  -8771078.67446  20661916.2114   20661921.4734
       227.1564
   1426451.38344    -22184.86845  24392729.2114   24392734.8364
     -1926.5474
 -10181041.49646  -7885701.77846  22247574.7274   22247578.6174
       930.7974
 -10769309.50445  -8330455.70846  22666593.3594   22666599.2664
      2947.0634
 97  9 17  0 24  0.0000000  0  8G24G29G14G25G16G30G 4G18
  -1917027.23043  -1313765.07245  24444965.1564   24444972.4024
      2869.8594
   8835680.25046  -6683212.25146  22129833.9614   22129838.0864
     -2894.2504
   4117782.22247 -11198806.18546  21207073.4774   21207078.2584
     -2350.5474
   1880136.76646  -6291391.14446  22737531.5004   22737536.1294
     -2260.2814
 -10562470.58547  -8776180.12246  20660670.5004   20660675.7734
       209.4064
   1484511.38343     23056.65645  24403777.6644   24403783.1954
     -1944.1254
 -10208681.37046  -7907239.33446  22242315.0084   22242319.2384
       911.7814
 -10857590.94546  -8399246.40646  22649795.4224   22649800.4384
      2938.5164
 97  9 17  0 24 30.0000000  0  8G24G29G14G25G16G30G 4G18
  -2002993.56843  -1380751.77445  24428608.6884   24428615.6884
      2861.7664
   8922670.35846  -6615427.76246  22146387.0784   22146391.1334
     -2904.4534
   4188543.77046 -11143667.32846  21220538.7114   21220543.6684
     -2366.2974
   1948183.71846  -6238367.55946  22750480.2894   22750484.8834
     -2275.5624
 -10568477.97247  -8780861.19546  20659527.2274   20659532.3134
       191.6724
   1543108.33843     68716.55745  24414927.3364   24414932.7734
     -1961.7814
 -10235736.93746  -7928321.58946  22237166.4614   22237170.6334
       892.5314
 -10945618.87646  -8467839.57446  22633043.9144   22633048.5784
      2930.5784
 97  9 17  0 25  0.0000000  0  8G24G29G14G25G16G30G 4G18
  -2088708.58443  -1447542.65045  24412296.2814   24412301.4844
      2852.9694
   9009967.47446  -6547404.05146  22162999.2584   22163003.3714
     -2914.9844
   4259776.81946 -11088161.06346  21234093.8594   21234098.8284
     -2382.1254
   2016687.35546  -6184988.13146  22763516.2274   22763520.9494
     -2290.7974
 -10573960.35647  -8785133.18046  20658484.1414   20658489.0634
       174.2814
   1602243.84143    114796.10145  24426180.5314   24426187.1174
     -1980.1254
 -10262212.07646  -7948951.56246  22232128.2664   22232132.3324
       872.8444
 -11033397.76346  -8536238.67246  22616339.7734   22616344.4964
      2921.7504
 97  9 17  0 25 30.0000000  0  8G24G29G14G25G16G30G 4G18
  -2174162.33143  -1514130.00845  24396035.1644   24396041.1884
      2843.8914
   9097576.24346  -6479137.49846  22179670.6254   22179674.7734
     -2925.5314
   4331481.60446 -11032287.20846  21247738.6884   21247743.4344
     -2398.0944
   2085644.63346  -6131255.20346  22776638.8524   22776643.1994
     -2306.4374
 -10578926.12047  -8789002.60346  20657538.8284   20657543.9144
       156.8754
   1661923.17044    161299.40245  24437538.4924   24437543.8134
     -1998.5164
 -10288103.18046  -7969126.43846  22227200.8204   22227204.9694
       853.3594
 -11120921.61646  -8604439.06346  22599684.0084   22599688.5204
      2913.3134
 97  9 17  0 26  0.0000000  0  8G24G29G14G25G16G30G 4G18
  -2259317.34844  -1580484.51845  24379829.7274   24379834.5314
      2833.6414
   9185520.70846  -6410609.35646  22196405.8834   22196409.8554
     -2936.7974
   4403682.22846 -10976026.99446  21261478.1954   21261483.0944
     -2414.7034
   2155096.91546  -6077136.56146  22789854.8524   22789859.1054
     -2323.0784
 -10583353.26047  -8792452.31846  20656696.8834   20656701.8284
       138.9064
   1722175.05044    208248.93845  24449004.0784   24449009.8324
     -2017.7504
 -10313392.24246  -7988832.20046  22222389.2424   22222393.2974
       833.1414
 -11208169.16546  -8672424.13446  22583081.5634   22583086.9414
      2903.5944
 97  9 17  0 26 30.0000000  0  8G24G29G14G25G16G30G 4G18
  -2344186.68343  -1646616.46145  24363680.0394   24363685.5594
      2824.1884
   9273776.24046  -6341838.82546  22213200.3204   22213204.4804
     -2946.9224
   4476344.55846 -10919407.00746  21275305.2034   21275310.1024
     -2429.2664
   2225024.09946  -6022647.86646  22803162.1804   22803166.3284
     -2338.7974
 -10587262.16647  -8795498.21746  20655952.8284   20655957.8444
       121.6254
   1782981.92144    255630.88745  24460575.0554   24460579.3914
     -2035.9534
 -10338101.25246  -8008085.96846  22217686.4614   22217691.1604
       814.1884
 -11295137.56546  -8740191.69346  22566532.2424   22566536.9304
      2894.1564
 97  9 17  0 27  0.0000000  0  8G24G29G14G25G16G30G 4G18
  -2428755.57844  -1712514.25045  24347588.1564   24347595.1914
      2813.3914
   9362347.72846  -6272822.10246  22230055.5634   22230059.6764
     -2958.3284
   4549446.96646 -10862444.10146  21289215.8204   21289220.7424
     -2444.6874
   2295434.46046  -5967782.67546  22816560.2814   22816564.6524
     -2355.5624
 -10590646.62047  -8798135.44946  20655308.8054   20655313.9734
       103.6414
   1844343.88743    303445.37345  24472250.3444   24472257.3794
     -2055.1254
 -10362240.03446  -8026895.41046  22213093.1954   22213097.3554
       794.7344
 -11381807.72946  -8807726.87246  22550039.0864   22550043.7034
      2883.5474
 97  9 17  0 27 30.0000000  0  8G24G29G14G25G16G30G 4G18
  -2513012.90043  -1778169.27345  24331553.8834   24331560.4924
      2804.0164
   9451254.11446  -6203544.41146  22246974.0704   22246977.9494
     -2968.5474
   4623006.48746 -10805124.99746  21303213.8834   21303219.0634
     -2458.9224
   2366342.57846  -5912529.61546  22830053.6564   22830058.4494
     -2371.5314
 -10593494.80947  -8800354.81646  20654766.7504   20654771.6024
        86.5004
   1906259.29244    351691.04545  24484033.7344   24484040.1094
     -2072.4064
 -10385806.19146  -8045258.64046  22208608.7034   22208612.8524
       776.5164
 -11468168.75446  -8875021.14346  22533604.8284   22533609.4454
      2873.9384
 97  9 17  0 28  0.0000000  0  8G24G29G14G25G16G30G 4G18
  -2596980.90541  -1843598.87145  24315574.0084   24315581.2664
      2793.8914
   9540477.23945  -6134019.92346  22263952.0634   22263956.4224
     -2979.5944
   4696996.04345 -10747470.82346  21317293.8204   21317298.8014
     -2473.6874
   2437732.71545  -5856900.97646  22843639.0784   22843643.3554
     -2387.7504
 -10595824.04945  -8802169.81946  20654323.7114   20654328.8094
        68.8754
                                  24495915.6564
     -2090.2974
 -10408811.86845  -8063185.14646  22204230.9614   22204235.3914
       757.2504
                                  22517228.8754
      2863.2194
 97  9 17  0 28 30.0000000  0  8G24G29G14G25G16G30G 4G18
                                  24299651.0864
      2785.2034
   9630008.73645  -6064255.13646  22280989.6334   22280993.7814
     -2989.0784
   4771408.75445 -10689486.90346  21331453.8984   21331458.6454
     -2487.1874
   2509589.58744  -5800908.62745  22857312.6724   22857317.0784
     -2402.5944
 -10597646.01345  -8803589.53146  20653977.0164   20653981.9264
        52.5784
                                  24507897.4454
     -2106.6254
 -10431262.29345  -8080678.96746  22199958.7194   22199963.0664
       739.5164
    -65726.10654  -9008904.54345  22500909.2274   22500913.6564
      2854.5784
 97  9 17  0 29  0.0000000  0  7G24G29G14G25G16G 4G18
                                  24283779.9064
      2775.4064
   9719842.33145  -5994254.96646  22298083.9774   22298088.3834
     -2999.6724
   4846253.61845 -10631166.24746  21345696.5164   21345701.3444
     -2502.2034
                                  22871075.1254
     -2419.2814
 -10598956.36745  -8804610.58446  20653727.5474   20653732.8444
        34.9694
 -10453156.93545  -8097739.73546  22195792.5474   22195797.5984
       720.1564
   -151219.77244  -9075522.96446  22484640.7274   22484644.4414
      2845.2664
 97  9 17  0 29 30.0000000  0  7G24G29G14G25G16G 4G18
    -13834.13351                  24267961.5004
      2766.7034
   9809973.52845  -5924022.87046  22315235.4924   22315239.8754
     -3008.9694
   4921523.99245 -10572514.00546  21360020.7424   21360025.5824
     -2515.6414
     70365.82044  -5687836.34145  22884927.0554   22884931.7194
     -2433.7664
 -10599749.42745  -8805228.54346  20653576.6644   20653581.9844
        18.0314
 -10474477.52345  -8114353.17446  22191735.1484   22191739.2854
       701.3914
    -48261.00354  -9141936.07046  22468421.8444   22468426.5904
      2836.8444
 97  9 17  0 30  0.0000000  0  7G24G29G14G25G16G 4G18
                                  24252195.1804
      2756.4534
   9900395.74845  -5853564.02746  22332442.3674   22332446.6564
     -3019.3284
   4997207.52545 -10513539.83146  21374422.6334   21374427.5904
     -2530.2194
     26907.58554  -5630761.75845  22898863.7664   22898868.5704
     -2449.4064
 -10600020.55445  -8805439.81546  20653525.0554   20653529.8014
        -0.2194
 -10495226.01045  -8130520.81546  22187787.2034   22187791.6214
       681.7034
   -133228.70144  -9208144.68845  22452253.3674   22452258.5234
      2827.5944
 97  9 17  0 30 30.0000000  0  7G24G29G14G25G16G 4G18
                                  24236486.9384
      2746.5634
     15138.91755  -5782869.31746  22349706.7274   22349711.6134
     -3029.0624
     58394.32655 -10454225.49346  21388907.0634   21388911.9964
     -2544.3124
     56551.19554  -5573323.90145  22912891.2894   22912895.3094
     -2464.5474
 -10599739.91645  -8805221.12946  20653578.3834   20653582.9184
       -18.5004
 -10515386.87845  -8146230.58046  22183950.6724   22183954.6914
       662.3754
    -64900.81454  -9274135.96145  22436137.1414   22436141.9574
      2818.3134
 97  9 17  0 31  0.0000000  0  6G29G14G25G16G 4G18
                                  22367030.6414
     -3039.3594
    134943.48445 -10394576.80846  21403474.3984   21403478.9804
     -2558.1254
    130723.92644  -5515527.00545  22927006.1804   22927010.4224
     -2479.5944
 -10598901.49545  -8804567.81446  20653738.3754   20653743.2384
       -36.5004
                                  22180227.5394

       642.7034                   22420077.9534
      2807.6254
 97  9 17  0 31 30.0000000  0  6G29G14G25G16G 4G18
     51803.15955  -5640746.85546  22384414.6804   22384419.2734
     -3050.4694
                                  21418121.4694
     -2573.1564
                                  22941207.7974
     -2495.4534
 -10597514.74445  -8803487.23146  20654001.8204   20654006.4844
       -55.6254
                                  22176619.0084
       621.9224
    -13984.58054  -9405400.22846  22404080.5394   22404085.2624
      2796.3754
 97  9 17  0 32  0.0000000  0  7G24G29G14G25G16G 4G18
                                  24189720.5784
      2714.3754
    143478.16045  -5569311.81646  22401860.1094   22401863.6844
     -3061.1724
     74840.83345 -10274272.44146  21432853.9844   21432858.7074
     -2587.9534
     72594.18644  -5398859.79745  22955497.2424   22955501.6484
     -2510.6414
 -10595563.09945  -8801966.46246  20654373.4304   20654378.3754
       -74.5004
    -14014.51155  -8190549.58546  22173127.2974   22173132.0904
       601.4224
    -13927.16855  -9470637.14245  22388149.2974   22388154.9804
      2784.9384
 97  9 17  0 32 30.0000000  0  7G24G29G14G25G16G 4G18
    -62283.17651                  24174254.0944
      2704.3284
    235465.90145  -5497633.08446  22419364.8834   22419368.4924
     -3071.3444
    152696.03445 -10213606.05746  21447669.1954   21447673.9184
     -2602.5164
    148138.15844  -5339994.38445  22969872.6174   22969877.0824
     -2525.6254
 -10593055.13546  -8800012.19646  20654850.6954   20654855.5824
       -92.6414
    -31751.51645  -8204370.61046  22169751.2584   22169755.3714
       581.1254
    -97309.39244  -9535610.32146  22372281.6954   22372287.0984
      2773.9064
 97  9 17  0 33  0.0000000  0  8G24G29G14G25G16G30G 4G18
    -45847.20351    -31517.98555  24158844.5004   24158853.1294
      2694.5944
    327760.55445  -5425715.19346  22436927.9454   22436931.6844
     -3081.1094
    230992.42245 -10152595.88946  21462568.1954   21462572.9184
     -2616.8124
    224131.11044  -5280779.11045  22984333.0784   22984337.3914
     -2540.2344
 -10590005.64546  -8797635.97446  20655430.3914   20655435.3134
      -110.2974
                                  24620221.4614
     -2267.2034
    -48879.90745  -8217717.39546  22166491.9694   22166496.2934
       561.1884
   -180363.44945  -9600327.72646  22356477.1954   22356481.6954
      2763.4534
 97  9 17  0 33 30.0000000  0  8G24G29G14G25G16G30G 4G18
                                  24143495.6024
      2683.3914
    420354.07145  -5353564.41846  22454547.9144   22454552.0744
     -3091.4534
     13153.90855 -10091235.79346  21477552.6564   21477557.1564
     -2632.5784
    300580.75345  -5221207.99946  22998881.7504   22998886.5204
     -2556.0004
 -10586402.46546  -8794828.29346  20656116.2734   20656121.1024
      -129.5004
                                  24633211.8984
     -2284.2504
    -65395.63745  -8230586.79546  22163349.2584   22163353.6294
       540.2814
   -263087.35645  -9664787.90246  22340735.3364   22340739.8834
      2751.7814
 97  9 17  0 34  0.0000000  0  7G29G14G25G16G30G 4G18
     34087.93055  -5281183.54346  22472223.2734   22472228.6054
     -3101.3124
     92354.24045 -10029521.25146  21492624.6644   21492629.5984
     -2647.6414
    377482.27944  -5161284.76745  23013515.2734   23013520.1954
     -2570.9064
                                  20656906.7194
      -147.5314
                                  24646301.6024
     -2301.5004
    -81309.36645  -8242987.09646  22160320.7974   22160324.8754
       520.5634
    -30174.67454  -9728992.05346  22325056.3444   22325061.0434
      2741.2034
 97  9 17  0 34 30.0000000  0  7G24G29G14G25G16G 4G18
    -13311.87551                  24112979.0084
      2661.8754
    127267.64245  -5208575.95146  22489955.7584   22489960.4574
     -3110.6414
                                  21507782.3834
     -2662.7344
    454835.93144  -5101009.20845  23028235.0234   23028239.1724
     -2586.0474
      4535.05545  -8787940.92246  20657798.0394   20657802.9384
      -164.6414
    -96634.40845  -8254928.68546  22157404.7974   22157408.8984
       501.1254
                                  22309436.4774
      2730.6094
 97  9 17  0 35  0.0000000  0  9G24G29G22G14G25G16G30G 4G18
    -93008.17341                  24097812.4384
      2650.9384
    220718.78344  -5135756.91646  22507738.3204   22507742.9964
     -3119.5164
                                  24644419.2034
      2858.7974
     77422.62245  -9905045.12246  21523022.6564   21523027.6484
     -2676.5624
     59680.99954  -5040388.15645  23043039.3984   23043044.5904
     -2600.4534
      9726.07145  -8783895.97346  20658785.5944   20658790.5274
      -181.5944
                                  24672781.1564
     -2336.8444
   -111385.18945  -8266422.79546  22154597.6484   22154602.1954
       482.0474
    -79034.45744  -9856663.01746  22293877.7114   22293882.5274
      2720.3754
 97  9 17  0 35 30.0000000  0  9G24G29G22G14G25G16G30G 4G18
    -29055.85052     -4112.46755  24082712.5704   24082713.5204
      2639.3284
     34391.69355  -5062728.17646  22525572.9694   22525577.8914
     -3128.6564
                                  24628120.8674
      2850.0004
    157929.53245  -9842312.49146  21538342.4064   21538347.5394
     -2690.7814
    137909.08644  -4979431.21145  23057926.2584   23057931.5314
     -2614.8444
     15432.58245  -8779449.33946  20659871.8284   20659876.8674
      -198.9374
     11761.63252                  24686172.0784
     -2354.4224
   -125557.32345  -8277466.01446  22151900.9924   22151904.5314
       462.5634
   -160488.43645  -9920133.60646  22278377.3834   22278381.4614
      2709.7814
 97  9 17  0 36  0.0000000  0  8G24G29G14G25G16G30G 4G18
    -13136.59652    -65671.77845  24067678.4534   24067680.5864
      2627.0474
    128390.71445  -4989482.27146  22543460.6094   22543464.8284
     -3138.1254
    238862.35145  -9779247.96246  21553744.1024   21553749.2814
     -2704.8914
     13139.96954  -4918135.52245  23072895.1094   23072899.2584
     -2629.5164
     21660.59645  -8774596.34446  20661056.9924   20661062.0084
      -216.6414
     11849.26751                  24699660.1484
     -2371.5474
   -139136.31645  -8288047.04546  22149316.5554   22149320.4104
       442.3754
   -241625.00745  -9983356.90446  22262937.2584   22262941.8754
      2699.2344
 97  9 17  0 36 30.0000000  0  7G24G29G14G25G16G 4G18
                                  24052717.8204
      2614.7504
     15731.82554  -4916008.45246  22561403.0554   22561407.0864
     -3147.5784
    320221.60545  -9715851.15746  21569226.2894   21569230.5904
     -2718.5624
     29056.08654  -4856487.88545  23087949.7584   23087955.4654
     -2644.0944
     28442.18345  -8769311.99446  20662347.3914   20662352.3484
      -235.1564
     -2113.17655  -8298135.56246  22146852.8674   22146857.1914
       421.1414
   -322437.12444 -10046327.35046  22247558.9064   22247563.6994
      2688.6254
 97  9 17  0 37  0.0000000  0  7G24G29G14G25G16G 4G18
    -13018.52051   -187915.45845  24037824.5004   24037833.4344
      2602.9534
     15777.75055  -4842315.31546  22579399.1804   22579403.7734
     -3157.2344
    401975.68945  -9652146.68446  21584783.0004   21584787.3954
     -2731.6874
     61002.73954  -4794519.90745  23103083.3364   23103087.9064
     -2657.4534
      5681.88855  -8763587.82446  20663744.6954   20663749.9104
      -254.4694
     -4447.23955  -8307736.84546  22144507.8204   22144512.5664
       400.5164
   -402942.61545 -10109058.87046  22232239.1414   22232243.9574
      2678.4694
 97  9 17  0 37 30.0000000  0  7G24G29G14G25G16G 4G18
                                  24022998.0314
      2591.1414
    110633.47544  -4768401.75245  22597450.0474   22597454.6644
     -3166.6724
     13714.89255  -9588133.33046  21600415.6954   21600420.3954
     -2745.0944
    140930.82044  -4732238.30245  23118292.6804   23118297.8244
     -2671.3594
      6116.65155  -8757420.26946  20665251.3284   20665256.3914
      -273.1414
     -1910.73655  -8316862.75246  22142279.3524   22142284.2504
       380.0944
    -29370.14455 -10171554.56846  22216978.2274   22216982.6214
      2668.1414
 97  9 17  0 38  0.0000000  0  7G24G29G14G25G16G 4G18
                                  24008237.5634
      2579.9064
    205770.89344  -4694268.70345  22615554.0084   22615558.6954
     -3176.1094
     13780.17455  -9523818.58946  21616121.9064   21616127.2274
     -2757.7504
    221276.57044  -4669631.24945  23133582.0314   23133585.9454
     -2685.2814
     14573.60245  -8750830.43846  20666860.3134   20666865.3404
      -291.0164
    -13021.50945  -8325520.47646  22140164.9454   22140169.9614
       360.3594
                                  22201771.3054
      2658.5784
 97  9 17  0 38 30.0000000  0  7G24G29G14G25G16G 4G18
                                  23993538.1174
      2569.0164
    301202.10144  -4619906.74245  22633713.2424   22633717.6134

     -3186.0314                   21631903.4614
     -2771.0314
     45813.49854  -4606696.54645  23148951.4614   23148955.4694
     -2699.2034
     23572.14845  -8743818.58346  20668573.0084   20668577.6024
      -308.8594
    -23537.68845  -8333714.89946  22138164.3364   22138168.9654
       340.7344
    -76945.65144 -10295849.95246  22186623.4614   22186628.3834
      2648.2664
 97  9 17  0 39  0.0000000  0  7G24G29G14G25G16G 4G18
    -12792.92451   -429182.71645  23978902.7894   23978908.8134
      2558.2034
     54272.19255  -4545320.24745  22651929.0784   22651933.5664
     -3194.9064
     80556.34545  -9394265.97846  21647760.0864   21647764.5744
     -2784.3754
    127004.16744  -4543431.12145  23164401.0164   23164405.4454
     -2713.5474
      1621.91656  -8736398.26146  20670384.8204   20670389.8594
      -325.8124
     -3578.28355  -8341460.84446  22136272.6644   22136277.5044
       321.9064
   -156233.30545 -10357632.50546  22171534.8984   22171539.1764
      2637.4844
 97  9 17  0 39 30.0000000  0  7G24G29G14G25G16G 4G18
    -12734.38552   -488847.91845  23964333.2194   23964338.4224
      2546.6094
    150249.54144  -4470532.72845  22670192.4614   22670196.0704
     -3203.6724
    164294.37345  -9329015.58846  21663695.1954   21663700.0124
     -2798.2504
                                  23179936.2584
     -2728.7344
     11639.61845  -8728592.22846  20672290.7664   20672295.7344
      -342.0624
     -5228.77555  -8348753.16046  22134491.9144   22134496.3094
       301.9224
   -235186.90845 -10419154.77346  22156511.5944   22156515.4614
      2626.0634
 97  9 17  0 40  0.0000000  0  7G24G29G14G25G16G 4G18
                                  23949829.2114
      2534.8594
     54575.32654  -4395530.57745  22688508.9304   22688513.0204
     -3212.9224
    248458.20445  -9263433.39646  21679710.7584   21679715.4454
     -2812.6254
     79352.65344  -4415857.57145  23195556.4614   23195561.4534
     -2743.3284
      1789.45755  -8720392.38546  20674293.4534   20674297.9774
      -359.3754
     -1416.34055  -8355571.51346  22132825.8834   22132830.1604
       281.6094
    -13072.23655 -10480398.41746  22141554.9844   22141559.4964
      2613.8134
 97  9 17  0 40 30.0000000  0  7G24G29G14G25G16G 4G18
                                  23935391.1724
      2523.4534
    151086.79645  -4320326.85645  22706874.5944   22706879.4224
     -3220.8754
    333052.84045  -9197515.50546  21695809.3054   21695814.1214
     -2826.7034
    161859.29244  -4351566.69545  23211256.9614   23211262.3284
     -2756.8754
     12830.84646  -8711788.72146  20676394.5394   20676399.5784
      -376.4224
     -9558.68145  -8361916.21446  22131276.6724   22131280.5274
       261.4384
    -91297.07045 -10541352.81346  22126668.8914   22126672.9924
      2601.5164
 97  9 17  0 41  0.0000000  0  7G24G29G14G25G16G 4G18
    -57855.95352   -666197.11645  23921021.6564   23921026.0274
      2511.0784
     54862.82254  -4244925.55945  22725288.8674   22725292.1954
     -3229.6254
    418080.97645  -9131259.82846  21711989.0554   21711993.3204
     -2841.2194
                                  23227036.8984
     -2770.9224
     24401.55445  -8702772.57946  20678596.7894   20678601.5704
      -394.4534
    -17079.32445  -8367776.45246  22129845.8594   22129849.6564
       240.4844
   -169145.14145 -10602013.62146  22111854.8284   22111859.4694
      2589.0784
 97  9 17  0 41 30.0000000  0  7G24G29G14G25G16G 4G18
    -27505.74252   -724746.60445  23906723.3674   23906729.4384
      2498.2664
    151897.70844  -4169313.97145  22743753.1024   22743757.2274
     -3239.6254
    503534.96045  -9064672.31846  21728250.7344   21728255.2114
     -2855.8284
     80560.79144  -4222012.57445  23242895.3524   23242899.3954
     -2784.8914
     36516.92545  -8693332.02646  20680902.0784   20680906.8714
      -413.5474
    -23975.72745  -8373150.27746  22128532.5864   22128537.2384
       219.2814
   -246638.35045 -10662397.91546  22097108.5394   22097113.5784
      2577.0314
 97  9 17  0 42  0.0000000  0  7G24G29G14G25G16G 4G18
    -12434.49552   -783006.90945  23892495.5864   23892500.9304
      2485.8284
    249224.09544  -4093475.25346  22762273.9924   22762278.0474
     -3248.3754
    589421.52145  -8997747.73346  21744594.9064   21744599.2774
     -2869.7194
    164304.80444  -4156757.51945  23258831.9454   23258836.2584
     -2797.8284
     49215.60246  -8683436.95246  20683318.4064   20683323.1294
      -432.7814
    -30248.32945  -8378038.01346  22127339.2274   22127344.5354
       199.0314
    -43670.88455 -10722507.93246  22082428.6954   22082433.2304
      2566.1094
 97  9 17  0 42 30.0000000  0  8G24G29G22G14G25G16G 4G18
                                  23878336.1024
      2474.2664
    346800.57045  -4017441.67945  22780842.9144   22780846.6054
     -3256.6414
                                  24405244.6644
      2723.9694
     48948.81555  -8930501.56246  21761017.1804   21761021.4454
     -2883.2034
    248437.51444  -4091199.60545  23274841.8754   23274846.3284
     -2810.8754
                                  20685843.8364
      -451.8124
    -35910.51245  -8382450.10546  22126262.2194   22126267.0594
       178.6884
    -43498.58955 -10782375.26646  22067808.5084   22067812.7274
      2556.0944
 97  9 17  0 43  0.0000000  0  8G24G29G22G14G25G16G 4G18
    -71560.29342   -898676.37545  23864246.8674   23864254.4654
      2462.0784
     16317.92854  -3941208.71445  22799459.2814   22799464.1804
     -3264.7344
                                  24389725.7664
      2714.3594
    135650.28545  -8862941.96346  21777514.9924   21777519.8914
     -2896.1724
     47946.06154  -4025329.07845  23290927.6094   23290930.9384
     -2823.9374
     13397.92345  -8662302.67446  20688479.7584   20688484.5514
      -470.8444
      -801.65955  -8386387.60846  22125300.6724   22125304.3524
       158.8754
   -120016.11945 -10841999.27446  22053247.7734   22053252.0634
      2545.6724
 97  9 17  0 43 30.0010000  0  7G24G29G14G25G16G 4G18
   -145228.30842   -956080.04345  23850228.7394   23850234.1774
      2449.0004
    114382.34144  -3864794.85845  22818119.8644   22818123.2984
     -3272.6874
    222739.27245  -8795080.43946  21794086.9814   21794091.5874
     -2909.6254
    132868.30743  -3959155.92745  23307087.4814   23307091.5954
     -2837.4064
     27812.78345  -8651070.31846  20691222.6924   20691227.4624
      -490.1094
     -5258.61745  -8389860.57246  22124452.7004   22124456.3564
       138.0784
   -196216.91645 -10901376.48346  22038747.4894   22038751.9664
      2533.9534
 97  9 17  0 44  0.0010000  0  7G24G29G14G25G16G 4G18
                                  23836285.6224
      2436.0944
    212677.06845  -3788201.60545  22836824.5364   22836829.3064
     -3280.2034
    310228.37445  -8726907.11846  21810735.9814   21810740.9624
     -2922.8444
    218190.29844  -3892671.29945  23323323.2474   23323327.3494
     -2850.6724
     42794.68346  -8639396.11046  20694073.8024   20694078.6424
      -508.3754
     -1333.08155  -8392844.59946  22123723.8104   22123727.6884
       117.2504
   -272054.49645 -10960470.68446  22024315.9034   22024319.7244
      2521.9224
 97  9 17  0 44 30.0010000  0  7G24G29G14G25G16G 4G18
                                  23822412.9894
      2423.7814
    311196.72944  -3711433.06445  22855571.6384   22855577.0754
     -3287.8124
     49835.33755  -8658437.00346  21827457.5834   21827462.2594
     -2934.9694
     31475.57953  -3825873.67645  23339634.9354   23339640.9704
     -2864.1094
     58302.09745  -8627312.41946  20697024.8494   20697029.4544
      -525.3284
     -4546.70645  -8395348.69046  22123111.6464   22123116.3924
        97.1254
    -12551.14355 -11019280.27646  22009953.6614   22009957.8684
      2509.5784
 97  9 17  0 45  0.0010000  0  8G24G29G22G14G25G16G 4G18
                                  23808615.3254
      2410.3594
    409973.37744  -3634464.28045  22874369.4424   22874374.5634
     -3296.9064
                                  24328208.4664
      2672.2664
    138084.19545  -8589671.70346  21844250.6144   21844255.1034
     -2948.0164
                                  23356028.3964
     -2878.4374
     74329.54445  -8614823.50246  20700074.3804   20700079.2904
      -542.7194
     -7142.02645  -8397371.01146  22122618.7784   22122623.0444
        76.0944
    -87628.46345 -11077782.08746  21995666.7554   21995671.7244
      2496.1724
 97  9 17  0 45 30.0010000  0  8G24G29G22G14G25G16G 4G18
    -69690.93842  -1182660.95045  23794894.0444   23794901.9464
      2397.3914
     36349.77054  -3557275.95845  22893219.7474   22893225.1614
     -3306.3594
                                  24312988.2164
      2661.1414
    226731.34145  -8520596.00846  21861119.5914   21861124.5134
     -2961.0474
     83694.16843  -3691287.34445  23372504.1224   23372507.0284
     -2892.5784
     90872.61645  -8601932.78646  20703222.6224   20703227.4504
      -559.5004
     -9093.94145  -8398891.99146  22122246.7864   22122251.1814
        54.8444
   -162319.41145 -11135982.79246  21981453.4034   21981458.6064
      2484.0004
 97  9 17  0 46  0.0010000  0  7G24G29G14G25G16G 4G18
    -40594.95853  -1238548.98645  23781246.5524   23781251.3564
      2384.1414
    135697.04344  -3479862.48245  22912124.3644   22912128.5834
     -3316.7664
    315758.79045  -8451223.98846  21878060.7004   21878065.7164
     -2974.0474
    170694.21544  -3623495.11245  23389060.2634   23389064.8564
     -2907.4694
    107918.63946  -8588650.17946  20706466.2554   20706470.7314
      -577.1254
    -10424.98945  -8399929.15046  22121993.7634   22121997.8994
        33.8914
   -236658.40145 -11193909.25046  21967306.8254   21967311.5714
      2471.9694
 97  9 17  0 46 30.0010000  0  8G24G29G22G14G25G16G 4G18
                                  23767670.8104
      2372.0314
    235332.91244  -3402224.17745  22931084.6924   22931089.6384
     -3325.5474
                                  24282733.2864
      2639.2974
    405156.41245  -8381563.51346  21895072.6304   21895077.5524
     -2985.7194
    258112.84243  -3555376.73745  23405695.4194   23405698.4424
     -2920.0784
    125488.66945  -8574959.24146  20709809.7474   20709814.6464
      -594.1874
    -11144.09245  -8400489.48946  22121856.3254   22121859.9814
        14.1254
   -310657.75645 -11251571.06246  21953225.6144   21953229.6924
      2461.5634
 97  9 17  0 47  0.0010000  0  8G24G29G22G14G25G16G 4G18
    -68586.74643  -1349432.68745  23754166.7084   23754171.9584
      2358.6564
    335248.38045  -3324368.00945  22950098.4274   22950103.5364
     -3335.4694
    -28937.40252                  24267697.6854
      2628.6094
    494923.51745  -8311615.13146  21912154.9034   21912159.8254
     -2998.9374
    345910.14744  -3486963.26945  23422400.8964   23422405.1384
     -2933.0474
    143598.44646  -8560847.72046  20713255.6064   20713260.1424
      -613.3284
    -11249.90845  -8400571.92146  22121836.5284   22121841.1344
        -7.2194
   -384336.08145 -11308982.72146  21939205.0524   21939209.3174
      2450.3594
 97  9 17  0 47 30.0010000  0  7G24G29G14G25G16G 4G18
   -139163.43943  -1404427.47645  23740737.6534   23740742.9854
      2346.5634
    435446.19844  -3246291.79845  22969165.2314   22969171.4194
     -3344.2034
    585082.34745  -8241361.50446  21929311.5524   21929316.2164
     -3011.3444
    434087.42044  -3418253.76345  23439181.2084   23439185.3684
     -2945.3444
    162281.60146  -8546289.42146  20716811.3104   20716816.2204
      -632.2344
    -10726.44845  -8400164.03146  22121936.4424   22121940.6034
       -27.5004
   -457685.89845 -11366138.41846  21925247.4274   21925251.5874
      2439.4224
 97  9 17  0 48  0.0010000  0  7G24G29G14G25G16G 4G18
   -209375.05743  -1459137.81845  23727375.6614   23727380.9814
      2334.1724
    535896.58145  -3168018.81345  22988279.7864   22988283.5714
     -3352.3754
    675608.60245  -8170821.57546  21946538.2714   21946542.9934
     -3023.8444
    522638.52544  -3349252.92945  23456032.5444   23456038.7314
     -2957.9694
    181543.84146  -8531279.87446  20720476.7554   20720481.3724
      -651.9374
     -9594.43945  -8399281.93946  22122151.7164   22122156.2984
       -48.2504
   -530689.94045 -11423024.63646  21911354.4814   21911359.4624
      2427.4844
 97  9 17  0 48 30.0010000  0  8G24G29G22G14G25G16G 4G18
   -279217.60043  -1513560.53245  23714085.8644   23714090.5054
      2321.7194
    636582.54844  -3089562.21645  23007440.2314   23007444.6734
     -3360.2974
    -10394.60651                  24222933.7474
      2598.2974
    766514.70345  -8099985.66346  21963836.8414   21963841.4234
     -3036.8594
    611554.39944  -3279967.85145  23472953.0284   23472957.3294
     -2970.0314
    201385.40746  -8515818.92146  20724252.4894   20724257.4354
      -670.8284
     -7827.77945  -8397905.31546  22122487.4744   22122491.4354
       -69.7504
   -603336.86645 -11479632.61846  21897530.0284   21897534.0244
      2415.3594
 97  9 17  0 49  0.0010000  0  8G24G29G22G14G25G16G 4G18
   -348673.23543  -1567681.77445  23700868.2864   23700874.8134
      2308.4064
    737515.41444  -3010913.23845  23026646.9424   23026652.4034

     -3368.6564                   24208133.1924
      2586.7344
    857819.18945  -8028839.31846  21981211.6144   21981216.0674
     -3050.2344
    700853.63644  -3210384.04345  23489944.9274   23489950.2824
     -2983.4694
    221794.37146  -8499915.83546  20728136.0364   20728141.2394
      -689.9374
     -5413.36945  -8396023.95346  22122946.3644   22122950.9464
       -91.2814
   -675605.64345 -11535945.93346  21883778.6534   21883783.1424
      2402.3594
 97  9 17  0 49 30.0010000  0  8G24G29G22G14G25G16G 4G18
    -39082.93053  -1621493.48045  23687727.0214   23687732.3174
      2294.9694
    838679.78844  -2932083.89845  23045898.1924   23045903.0794

     -3376.1414     -43838.90051  24193396.4504
      2575.3134
    949508.39945  -7957393.19246  21998659.2944   21998663.6654
     -3062.7664
    790542.80544  -3140496.41445  23507013.0134   23507017.2084
     -2996.3284
    242758.66246  -8483580.01146  20732125.5134   20732130.5284
      -708.1724
     -2375.77345  -8393656.97746  22123524.9424   22123529.3134
      -111.7664
   -747492.19745 -11591961.40346  21870098.3964   21870102.6854
      2389.4224
 97  9 17  0 50  0.0010000  0  8G24G29G22G14G25G16G 4G18
   -107725.70243  -1674981.37345  23674664.3024   23674669.7744
      2281.0164
    940067.66644  -2853080.39545  23065191.1384   23065196.4354
     -3383.0944
   -120923.83941    -42016.56555  24178726.3494   24178729.6884
      2563.4224
   1041578.06545  -7885650.61046  22016179.6534   22016184.4354
     -3075.5314
    880617.56644  -3070308.33245  23524153.4664   23524157.9074
     -3008.6564
    264272.69946  -8466815.83646  20736219.5914   20736224.0794
      -726.2034
      1284.56445  -8390804.76846  22124221.1614   22124225.6264
      -132.3914
   -818983.32245 -11647668.74346  21856493.9504   21856498.4384
      2376.7194
 97  9 17  0 50 30.0010000  0  8G24G29G22G14G25G16G 4G18
   -175937.71943  -1728133.53945  23661684.6064   23661690.2674
      2266.3914
   1041673.96544  -2773906.67245  23084526.1224   23084531.7824
     -3390.5784
   -197645.54142   -101799.67945  24164129.5674   24164134.3254
      2551.3754
   1134036.19245  -7813605.32746  22033772.9584   22033777.8334
     -3088.1414
    971056.82744  -2999836.18745  23541362.8024   23541367.7474
     -3020.7194
    286327.70246  -8449630.12146  20740416.3564   20740420.9974
      -744.0784
      5557.00045  -8387475.59346  22125034.4664   22125039.0244
      -152.2344
   -890097.35845 -11703082.25646  21842961.5604   21842966.3884
      2364.1414
 97  9 17  0 51  0.0010000  0  8G24G29G22G14G25G16G 4G18
                                  23648789.8254
      2251.3284
   1143508.91844  -2694554.79145  23103904.8494   23103909.9114
     -3398.0624
                                  24149599.8104
      2538.9064
   1226873.24545  -7741264.78846  22051440.2394   22051444.6344
     -3100.7344
   1061873.53843  -2929069.94245  23558644.9114   23558649.9854
     -3033.4374
    308935.32046  -8432013.80446  20744718.3644   20744723.1814
      -762.9064
     10423.59945  -8383683.44546  22125961.2004   22125965.4544
      -171.9534
   -960825.32345 -11758194.94746  21829502.5524   21829507.2514
      2351.2814
 97  9 17  0 51 30.0010000  0  8G24G29G22G14G25G16G 4G18
    -65085.58542  -1833404.32745  23635975.6694   23635981.3414
      2237.8754
   1245535.31143  -2615053.72345  23123319.6384   23123326.0604
     -3403.9224
    -73447.35742   -220501.09445  24135141.4424   24135147.7354
      2527.1884
   1320067.19945  -7668646.13646  22069174.2944   22069179.0284
     -3112.2194
   1153049.34043  -2858023.92545  23575996.3494   23576000.3214
     -3045.1094
    332084.92746  -8413975.14246  20749124.0214   20749128.8134
      -780.4694
     15863.66945  -8379444.41846  22126996.0054   22127000.1534
      -190.9374
  -1031189.27945 -11813023.98246  21816112.4504   21816117.5834
      2339.5784
 97  9 17  0 52  0.0010000  0  8G24G29G22G14G25G16G 4G18
   -132002.24043  -1885547.15045  23623243.2004   23623249.0134
      2223.8914
   1347764.05544  -2535394.99345  23142773.4894   23142777.8724
     -3410.8124
                                  24120750.1534
      2514.7504
   1413627.58445  -7595741.95346  22086978.4424   22086983.6694
     -3124.5944
   1244604.46144  -2786682.26445  23593417.7084   23593423.1224
     -3057.8914
    355777.02046  -8395513.77446  20753632.2474   20753637.1814
      -798.4064
     21904.35745  -8374737.38246  22128145.4974   22128149.2354
      -211.1094
  -1101184.65345 -11867565.80446  21802792.8024   21802797.5954
      2327.5004
 97  9 17  0 52 30.0010000  0  8G24G29G22G14G25G16G 4G18
    -37634.22853  -1937370.02045  23610585.8414   23610591.7004
      2210.2034
   1450208.04844  -2455568.54045  23162268.2784   23162272.6964
     -3418.5314
    -72738.91941   -338065.36645  24106427.7244   24106431.6144
      2502.4224
   1507555.27245  -7522551.56746  22104852.2554   22104857.2354
     -3136.9374
   1336533.81743  -2715049.05045  23610911.7864   23610916.4384
     -3070.6094
    379999.12546  -8376639.41346  20758241.2164   20758246.1144
      -816.1874
     28549.70145  -8369559.19146  22129409.6534   22129413.7204
      -231.7974
  -1170818.57345 -11921825.97246  21789542.1614   21789546.9784
      2314.7504
 97  9 17  0 53  0.0010000  0  8G24G29G22G14G25G16G 4G18
   -103747.95543  -1988887.15845  23598005.0674   23598009.8604
      2197.6414
   1552868.28744  -2375573.58045  23181803.5914   23181808.8764
     -3425.2504
                                  24092178.3414
      2490.1884
   1601848.87845  -7449076.04146  22122795.6854   22122800.6534
     -3149.0314
   1428840.72843  -2643121.59645  23628476.2394   23628482.3924
     -3082.7664
      4160.12356  -8357353.70046  20762951.3804   20762956.3844
      -833.4374
     35825.12045  -8363890.04046  22130794.6694   22130798.5714
      -252.8594
  -1240070.20445 -11975788.27446  21776363.4114   21776367.9814
      2302.3134
 97  9 17  0 53 30.0010000  0  8G24G29G22G14G25G16G 4G18
   -169473.59643  -2040101.90745  23585498.7864   23585504.1064
      2183.7664
   1655756.00544  -2295401.35145  23201382.0364   23201387.4384
     -3434.3124
    -42184.38452   -454499.74245  24077993.5364   24077999.0674
      2478.0314
   1696524.02445  -7375303.21746  22140811.4034   22140816.1264
     -3162.8444
   1521520.24143  -2570903.81045  23646113.3884   23646117.9464
     -3096.0314
     29439.69146  -8337655.32546  20767761.9274   20767766.9424
      -852.0784
     43748.86845  -8357715.67946  22132302.7554   22132307.1494
      -275.6254
  -1308929.78345 -12029445.06346  21763260.7314   21763265.3374
      2288.1414
 97  9 17  0 54  0.0010000  0  8G24G29G22G14G25G16G 4G18
   -234791.53143  -2090998.97845  23573068.5754   23573074.7044
      2170.4384
     58484.90554  -2215018.85245  23221012.3334   23221017.5604
     -3443.3124
    -27154.31852   -512296.02445  24063879.8564   24063883.8644
      2466.3444
   1791600.27945  -7301217.83846  22158904.9814   22158909.5994
     -3176.1094
     15531.30353  -2498392.41245  23663821.7394   23663827.5174
     -3107.9064
     55265.28746  -8317531.49146  20772675.9744   20772681.0134
      -870.1094
     52343.15345  -8351018.82946  22133937.6224   22133941.4784
      -297.6724
  -1377378.91445 -12082782.02046  21750234.6694   21750239.3334
      2274.6884
 97  9 17  0 54 30.0010000  0  8G24G29G22G14G25G16G 4G18
   -299712.28643  -2141586.55145  23560714.9814   23560720.5484
      2157.3594
    161907.53144  -2134429.77645  23240693.2944   23240697.4424
     -3451.5784
    -41793.27852   -569823.20145  24049830.3174   24049836.8804
      2455.5164
   1887072.60745  -7226823.81646  22177071.5444   22177076.3604
     -3188.7664
    108928.35943  -2425615.49445  23681594.7714   23681599.8924
     -3118.7974
     81635.22146  -8296983.48946  20777694.4584   20777699.1814
      -888.0944
     61595.22745  -8343809.40946  22135698.0134   22135701.5874
      -319.2814
  -1445429.52045 -12135808.44146  21737285.6144   21737289.9974
      2261.8284
 97  9 17  0 55  0.0010000  0  8G24G29G22G14G25G16G 4G18
   -364217.22043  -2191850.12245  23548440.2164   23548444.1304
      2142.9064
    265578.49644  -2053647.24245  23260421.3254   23260425.0284
     -3459.8594
   -115291.23942   -627094.32045  24035842.8024   24035845.2164
      2444.4064
   1982926.69045  -7152132.35046  22195312.5914   22195316.7394
     -3201.4694
    202668.75543  -2352571.05145  23699432.0284   23699438.9934
     -3130.4844
    108563.21646  -8276000.63746  20782818.4894   20782823.7514
      -906.9844
     71495.84845  -8336094.64546  22137582.2784   22137586.4624
      -340.4534
  -1513093.40945 -12188533.53546  21724409.3644   21724413.8294
      2249.2034
 97  9 17  0 55 30.0010000  0  8G24G29G22G14G25G16G 4G18
   -428276.79143  -2241766.64445  23536249.0994   23536254.8294
      2127.8914
    369504.56643  -1972665.91945  23280197.4584   23280201.8414
     -3468.1414
    -41410.77852   -684100.20645  24021922.8884   24021928.8414
      2432.9694
   2079161.11345  -7077144.50346  22213625.3024   22213630.0244
     -3213.8284
    296761.14843  -2279252.37345  23717337.8884   23717341.2514
     -3142.1094
    136059.60046  -8254574.89046  20788050.9114   20788055.7394
      -925.8754
     82020.95945  -8327893.26446  22139585.1614   22139589.3454
      -361.0164
  -1580380.63245 -12240965.12346  21711605.0604   21711609.8534
      2236.8444
 97  9 17  0 56  0.0010000  0  8G24G29G22G14G25G16G 4G18
   -491867.75643  -2291318.01345  23524148.1924   23524154.4504
      2111.5784
    473668.78643  -1891499.02845  23300020.1224   23300024.5874
     -3475.7034
                                  24008069.8724
      2420.9224
   2175763.12745  -7001870.22246  22232007.6064   22232012.8684
     -3226.0784
     72432.87053  -2205661.43445  23735309.5604   23735314.4114
     -3153.8754
    164125.13946  -8232705.63446  20793391.5134   20793396.5754
      -944.9534
     93168.65145  -8319206.74746  22141706.5834   22141710.9544
      -381.8124
  -1647288.19845 -12293100.87646  21698873.0674   21698877.1224
      2223.7344
 97  9 17  0 56 30.0010000  0  8G24G29G22G14G25G16G 4G18
                                  23512138.2634
      2095.9534
    578018.81843  -1810187.31445  23319877.1064   23319881.8294
     -3480.7814
    -70010.46142   -797266.08345  23994286.0754   23994289.0634
      2408.6254
     16175.12555  -6926331.83146  22250455.4744   22250460.5364
     -3236.5164
                                  23753343.7784
     -3164.4694
    192740.40246  -8210408.02946  20798836.7474   20798841.4704
      -962.5314
    104915.98245  -8310052.97946  22143941.6614   22143946.2674
      -401.2814
  -1713819.27345 -12344943.25146  21686212.3334   21686216.5994
      2211.5944
 97  9 17  0 57  0.0010000  0  8G24G29G22G14G25G16G 4G18
    -60537.93143  -2389302.80145  23500219.7004   23500224.8804
      2079.7504
    682529.41143  -1728750.54445  23339765.2394   23339771.3334
     -3486.5314
   -142068.96042   -853415.57045  23980574.1304   23980579.5094
      2395.1414
    113437.85445  -6850542.68346  22268964.0364   22268968.5714
     -3247.7504
                                  23771444.3724
     -3176.4374
    221885.42346  -8187697.63046  20804383.1534   20804388.1814
      -980.1564
    117253.30045  -8300439.48546  22146289.7314   22146293.7864
      -421.3124
  -1779960.35845 -12396481.74346  21673626.3964   21673630.2984
      2197.7974
 97  9 17  0 57 30.0010000  0  8G24G29G22G14G25G16G 4G18
                                  23488389.3964
      2064.2974
    787199.50443  -1647189.44545  23359682.4354   23359686.3604
     -3492.0314
                                  23966937.7784
      2381.7034
    211024.18945  -6774501.40446  22287534.3334   22287538.8454
     -3258.5624
     92266.71643  -1983322.10345  23789607.1924   23789612.5014
     -3187.2194
    251525.70146  -8164601.30346  20810022.9114   20810028.0564
      -996.4224
    130186.06845  -8290362.00646  22148750.7784   22148755.5954
      -441.5944
  -1845696.33045 -12447704.56046  21661117.5834   21661121.7204
      2184.0004
 97  9 17  0 58  0.0010000  0  8G24G29G22G14G25G16G 4G18
    -59634.13843  -2485823.46845  23476648.0914   23476652.9894
      2049.3754
    892051.08043  -1565486.98645  23379635.4814   23379641.0604
     -3498.0474
    -26076.64652   -964772.06345  23953381.2474   23953385.9814
      2368.3444
    308949.85645  -6698195.70546  22306168.8884   22306174.0674
     -3269.7664
    188044.79043  -1908689.84045  23807833.7714   23807839.8174
     -3197.8914
    281663.23946  -8141117.51446  20815758.0674   20815762.8494
     -1012.5944
    143740.93445  -8279799.76746  22151330.3414   22151334.4544
      -461.9224
  -1911004.62945 -12498594.13046  21648689.6384   21648694.0214
      2170.0944
 97  9 17  0 58 30.0010000  0  8G24G29G22G14G25G16G 4G18
    -10177.11553  -2533549.90745  23464992.9354   23464997.7864
      2034.3914
                                  23399626.6224

     -3505.9224                   23939900.5134
      2353.7974
    407234.13245  -6621610.57146  22324871.7474   22324876.1534
     -3282.2034
    284163.54443  -1833792.18445  23826124.3804   23826128.9384
     -3209.7814
     11294.47156  -8117238.63246  20821589.5284   20821594.4504
     -1030.1094
    157927.85645  -8268745.03246  22154029.5914   22154033.9974
      -483.6094
  -1975885.84345 -12549150.90046  21636343.0754   21636347.4464
      2155.7344
 97  9 17  0 59  0.0010000  0  8G24G29G22G14G25G16G 4G18
    -71007.10643  -2580949.85945  23453417.2714   23453422.7204
      2020.4064
    101783.20243  -1401573.93645  23419664.8174   23419670.1494
     -3514.0944
    -25763.34051  -1074826.70045  23926502.6694   23926506.8884
      2339.5784
    505869.95845  -6544751.50846  22343641.4354   22343646.6264
     -3293.9374
    380620.41543  -1758630.98245  23844478.8644   23844482.6964
     -3220.9534
     42450.61645  -8092961.15746  20827518.0834   20827522.9704
     -1047.5004
    172741.14945  -8257202.20146  22156848.4584   22156852.5604
      -504.4064
  -2040365.51245 -12599394.78646  21624072.6694   21624076.4194
      2142.6414
 97  9 17  0 59 30.0010000  0  8G24G29G22G14G25G16G 4G18
   -131398.62843  -2628008.16445  23441925.3414   23441931.9854
      2005.4064
    207341.61942  -1319320.65645  23439750.6064   23439754.9664
     -3523.4224
    -11629.95251  -1129350.76345  23913187.3804   23913194.4744
      2325.0164
    604872.35845  -6467606.79546  22362480.1144   22362485.0244
     -3306.5164
    477413.93142  -1683207.46045  23862898.3334   23862902.7514
     -3232.4224
     74159.16445  -8068253.20046  20833552.2314   20833556.8844
     -1067.0314
    188191.38445  -8245163.06246  22159788.5214   22159793.1494
      -525.8284
                                  21611878.5604
      2128.9384
 97  9 17  1  0  0.0010000  0  8G24G29G22G14G25G16G 4G18
   -191361.83143  -2674732.74745  23430514.7314   23430520.1104
      1992.0004
    313154.80643  -1236868.83045  23459886.2784   23459892.2314

     -3530.6564                   23899952.1694
      2311.6564
    704232.76245  -6390183.11146  22381388.3804   22381393.2904
     -3317.5314
     55076.27853  -1607521.26845  23881381.6464   23881387.5524
     -3243.0944
    106451.96046  -8043089.97346  20839697.5054   20839702.1924
     -1085.9224
    204263.78945  -8232639.10346  22162848.2714   22162852.1384
      -545.7814
    -61557.94345 -12698952.01546  21599759.6924   21599763.9704
      2116.8134
 97  9 17  1  0 30.0010000  0  8G24G29G22G14G25G16G 4G18
   -250899.15243  -2721125.42045  23419184.4114   23419190.0134
      1977.1884
    419187.19543  -1154246.25145  23480064.7944   23480069.5284
     -3538.0164
    -25292.22252  -1237406.31645  23886798.8724   23886808.1574
      2296.8754
    803932.11545  -6312495.33246  22400360.5284   22400364.6424
     -3328.8914
    152548.29843  -1531569.09645  23899929.8564   23899935.3994
     -3254.8444
    139335.88246  -8017466.14846  20845954.9114   20845960.1494
     -1106.2814
    220955.39045  -8219632.66946  22166023.6694   22166028.3104
      -566.8594
   -124864.69445 -12748281.92946  21587712.2244   21587716.5134
      2103.5944
 97  9 17  1  1  0.0010000  0  8G24G29G22G14G25G16G 4G18
   -309991.40143  -2767171.29745  23407940.4744   23407945.9234
      1962.3284
     17713.54852  -1071468.04645  23500279.2004   23500282.7634
     -3544.1094
    -11421.46852  -1290942.41245  23873725.6384   23873730.5244
      2283.5164
     56716.93555  -6234553.17746  22419394.7944   22419399.7044
     -3339.5944
    250355.28342  -1455355.92545  23918541.5444   23918546.3254
     -3265.4534
    172813.71445  -7991379.53046  20852325.5754   20852330.9194
     -1125.3914
    238262.85845  -8206146.33246  22169317.4194   22169321.7434
      -586.9694
   -187780.48645 -12797307.20246  21575739.9274   21575744.2164
      2090.7974
 97  9 17  1  1 30.0010000  0  8G24G29G22G14G25G16G 4G18
   -368628.77244  -2812862.76845  23396781.8884   23396787.5954
      1946.7504
    124138.05243   -988539.86445  23520531.7004   23520534.9584
     -3550.9064
    -24991.04352  -1344158.54945  23860728.2474   23860733.9664
      2269.5004
    157082.70145  -6156346.07046  22438493.8564   22438498.5444
     -3351.5164
     75261.03153  -1378888.88945  23937216.3334   23937221.5014
     -3276.9534
    206872.43846  -7964840.25646  20858806.2634   20858811.6304
     -1145.0944
    256188.65145  -8192178.18646  22172728.2714   22172732.0674
      -608.2344
   -250294.27345 -12846019.21846  21563843.8884   21563848.4584
      2076.7034
 97  9 17  1  2  0.0010000  0  8G24G29G22G14G25G16G 4G18
   -426818.43543  -2858205.33445  23385709.0674   23385714.9854
      1932.7814
    230739.49243   -905473.85645  23540817.9584   23540821.9664
     -3555.5624
    -92881.07542  -1397059.87645  23847810.0524   23847813.8134
      2256.8134
    257789.08445  -6077873.59846  22457658.0754   22457662.6464
     -3361.9534
    173724.06942  -1302164.44945  23955952.8564   23955958.3414
     -3286.9064
    241492.00146  -7937863.97246  20865394.5914   20865399.7124
     -1162.4534
    274742.77145  -8177720.42246  22176259.8414   22176263.8134
      -628.4534
   -312406.05745 -12894418.00446  21552024.6534   21552029.2714
      2064.3134
 97  9 17  1  2 30.0010000  0  8G24G29G22G14G25G16G 4G18
   -484569.66743  -2903206.25745  23374718.4584   23374724.7284
      1917.4844
    337502.41243   -822281.98545  23561134.0604   23561139.0634
     -3561.9064
    -24705.70052  -1449659.76045  23834963.8884   23834970.3684
      2243.8134
    358824.65445  -5999144.59246  22476884.3024   22476888.8844
     -3373.5474
    272492.90343  -1225201.75645  23974748.0444   23974754.4074
     -3297.2504
    276642.11246  -7910474.28146  20872083.3804   20872088.4544
     -1180.4844
    293915.45845  -8162780.65546  22179907.9584   22179912.0364
      -649.3754
   -374126.49345 -12942511.83246  21540279.5054   21540283.7244
      2050.5784
 97  9 17  1  3  0.0010000  0  8G24G29G22G14G25G16G 4G18
   -541857.05044  -2947845.79145  23363818.0524   23363823.4314
      1902.1094
     39237.24354   -738934.13045  23581488.9274   23581493.9544
     -3568.4844
    -24564.41052  -1501957.78145  23822192.7944   23822195.2554
      2230.9384
    460217.93445  -5920136.85746  22496178.1694   22496182.8924
     -3385.6564
     56175.00853  -1148000.40945  23993600.7554   23993605.3374
     -3307.3284
    312323.32346  -7882670.73546  20878872.9584   20878878.0444
     -1197.7504
    313709.67245  -8147356.61046  22183674.3334   22183678.8454
      -669.7814
   -435430.03345 -12990280.80646  21528614.0214   21528618.0634
      2036.8134
 97  9 17  1  3 30.0010000  0  8G24G29G22G14G25G16G 4G18
   -598688.55944  -2992130.03045  23353002.6614   23353009.1534
      1886.7344
    146389.05143   -655439.27445  23601878.7634   23601882.3604
     -3574.6094
    -91293.93142  -1553954.75045  23809495.1774   23809500.0284
      2217.9064
    561960.37945  -5840857.04246  22515539.6534   22515544.5754
     -3396.7664
    155550.23143  -1070565.20145  24012511.1384   24012514.6424
     -3317.6254
    348516.34546  -7854468.38946  20885760.5754   20885765.4384
     -1214.8594
    334108.39245  -8131461.48646  22187556.0994   22187560.0604
      -689.8914
   -496326.05945 -13037732.24146  21517025.6924   21517030.5674
      2023.0944
 97  9 17  1  4  0.0010000  0  8G24G29G22G14G25G16G 4G18
   -655040.70944  -3036040.81545  23342279.1694   23342283.6924
      1870.2814
    253721.66443   -571803.48045  23622303.2394   23622307.1654
     -3580.5944
   -157622.62142  -1605639.38745  23796870.6304   23796874.7784
      2204.2974
    664031.33645  -5761321.26146  22534963.1694   22534967.4234
     -3407.6564
    255243.31143   -992882.28045  24031482.3104   24031484.8764
     -3328.2344
    385225.83646  -7825863.58746  20892746.1614   20892751.0834
     -1232.1414
    355114.91145  -8115092.76246  22191553.5364   22191558.0134
      -710.2194
   -556804.55145 -13084858.32446  21505517.0914   21505521.2284
      2009.0004
 97  9 17  1  4 30.0010000  0  8G24G29G22G14G25G16G 4G18
   -710902.80543  -3079569.68545  23331649.1694   23331655.0874
      1853.6724
    361230.44743   -488030.44945  23642762.0754   23642766.5754
     -3586.7194
   -223552.95342  -1657013.63245  23784326.7554   23784330.8684
      2190.6724
    766413.64045  -5681542.86646  22554445.8564   22554450.4384
     -3417.9064
    355248.40342   -914956.32445  24050513.1464   24050520.2514
     -3338.8284
    422444.81946  -7796861.78746  20899828.7554   20899833.4664
     -1249.1724
    376719.51245  -8098258.03346  22195664.8964   22195669.1614
      -730.1724
   -616864.52445 -13131658.28546  21494087.7864   21494092.4974
      1994.9844
 97  9 17  1  5  0.0010000  0  8G24G29G22G14G25G16G 4G18
    -31303.89254  -3122705.08045  23321114.5214   23321119.2904
      1836.5004
     61040.08553   -404118.80545  23663254.3174   23663257.9624
     -3592.6724
   -289058.66942  -1708057.04245  23771861.0284   23771864.9544
      2175.9064
    869100.76345  -5601526.95146  22573986.2554   22573991.2944
     -3428.2194
     16741.05453   -836780.46345  24069603.5754   24069608.8964
     -3350.0474
    460173.07746  -7767463.14946  20907008.1304   20907012.9464
     -1266.5164
    398929.00045  -8080951.92546  22199890.4194   22199894.7554
      -750.9374
   -676504.65945 -13178131.10746  21482738.9744   21482743.5564
      1980.6724
 97  9 17  1  5 30.0010000  0  8G24G29G22G14G25G16G 4G18
    -86164.29543  -3165453.40345  23310674.9424   23310681.0954
      1820.2664
    168887.78042   -320081.65845  23683776.0674   23683780.0994
     -3597.9374
   -354131.51442  -1758763.12245  23759477.5134   23759483.1034
      2161.6884
    972070.98745  -5521290.43446  22593580.3804   22593585.7594
     -3437.1724
    117389.14042   -758353.46745  24088757.3254   24088761.9894
     -3360.5164
    498408.40045  -7737669.39246  20914283.7244   20914288.3994
     -1283.2814
    421758.48645  -8063162.73646  22204235.2394   22204239.8684
      -771.8444
   -735735.12545 -13224284.70546  21471467.7244   21471472.2004
      1967.3284
 97  9 17  1  6  0.0010000  0  8G24G29G22G14G25G16G 4G18
   -140534.24143  -3207819.57245  23300328.7314   23300333.6424
      1803.9534
    276910.82743   -235907.89245  23704332.8334   23704338.2714
     -3604.2034
   -418764.43542  -1809126.39145  23747179.0284   23747184.2084
      2146.6414
   1075330.96045  -5440828.14546  22613230.7474   22613235.8214
     -3447.4694
    218354.43042   -679679.27045  24107969.7084   24107975.3334
     -3370.7344
    537161.08546  -7707472.49546  20921658.5914   20921663.5954
     -1300.6724
    445233.00145  -8044870.89246  22208702.0444   22208706.4854
      -793.5474
   -794555.43845 -13270118.69346  21460274.4894   21460278.7204
      1953.5314
 97  9 17  1  6 30.0010000  0  8G24G29G22G14G25G16G 4G18
   -194416.25644  -3249805.54845  23290076.0674   23290080.7674
      1788.5474
     61347.66653   -151575.33845  23724928.2944   23724931.5634
     -3610.5164
    -23475.35852  -1859128.69345  23734965.9034   23734969.9114
      2131.5784
   1178917.28645  -5360111.54746  22632942.6614   22632948.0754
     -3458.0164
    319625.62342   -600766.64645  24127240.7784   24127245.8884
     -3380.3754
    576445.15646  -7676861.53246  20929133.9194   20929138.7354
     -1318.0164
    469361.05445  -8026069.83046  22213293.0674   22213297.4854
      -814.6564
   -852950.82645 -13315621.58646  21449162.4974   21449166.7744
      1939.8134
 97  9 17  1  7  0.0010000  0  8G24G29G22G14G25G16G 4G18
   -247829.00444  -3291425.87245  23279911.6854   23279916.8064
      1772.2974
    169767.32743    -67092.49845  23745559.4354   23745564.9544
     -3617.5784
    -87184.04142  -1908771.79245  23722843.5134   23722845.9854
      2115.6564
   1282832.94345  -5279138.33246  22652717.4194   22652722.7044
     -3469.8284
    421185.14543   -521629.41745  24146567.4744   24146575.2354
     -3390.4374
    616256.49446  -7645839.71746  20936709.7474   20936714.5404
     -1336.2814
    494130.77745  -8006768.72946  22218007.3104   22218011.3994
      -836.7194
   -910923.55545 -13360795.12346  21438130.2244   21438134.7594
      1924.8754
 97  9 17  1  7 30.0010000  0  8G24G29G22G14G25G16G 4G18
   -300777.94444  -3332684.77245  23269835.5444   23269841.0284
      1757.1094
     61567.49253     17543.44145  23766227.9664   23766233.1694
     -3624.0164
   -150435.23142  -1958058.43745  23710806.0364   23710810.8644
      2100.5944
   1387082.22245  -5197905.15246  22672555.7084   22672560.7004
     -3480.7664
                                  24165947.1064
     -3399.5164
    656604.14846  -7614399.99546  20944387.6614   20944392.4194
     -1354.1254
    519536.16645  -7986972.33746  22222841.6924   22222845.2314
      -857.3914
   -968467.89845 -13405634.86446  21427180.0134   21427184.3604
      1910.7344
 97  9 17  1  8  0.0010000  0  8G24G29G22G14G25G16G 4G18
   -353257.63744  -3373578.01345  23259849.4584   23259854.6964
      1741.3914
    170376.88943    102329.92345  23786933.2554   23786938.0484
     -3629.9064
   -213225.60842  -2006985.93145  23698858.5444   23698864.5094
      2085.4534
   1491672.32645  -5116406.39546  22692458.5364   22692463.3064
     -3491.9374
     98717.58942   -362695.94845  24185380.0444   24185385.8454
     -3408.4694
    697500.41046  -7582532.78446  20952169.7784   20952174.7474
     -1372.1724
    545551.60345  -7966700.57946  22227792.0754   22227796.2124
      -876.8444
  -1025570.03845 -13450130.02246  21416313.9584   21416318.9854
      1896.0784
 97  9 17  1  8 30.0010000  0  8G24G29G22G14G25G16G 4G18
   -405249.70445  -3414091.31345  23249955.5444   23249961.3564
      1725.0474
    279374.45443    187263.07045  23807675.5604   23807680.3064
     -3636.1564
   -275554.26142  -2055553.72245  23686996.9814   23687002.3964
      2070.0314
   1596603.65145  -5034641.75046  22712426.1854   22712430.5914
     -3503.0004
    201126.02943   -282897.20745  24204868.6774   24204871.0094
     -3418.5944
    738954.26446  -7550231.08546  20960058.2164   20960063.3604
     -1391.2194
    572158.81545  -7945967.66546  22232855.6064   22232859.9544
      -896.7504
  -1082216.79945 -13494270.34346  21405534.1854   21405538.7434
      1880.7814
 97  9 17  1  9  0.0010000  0  9G24G29G22G14G25G13G16G 4G18
   -456757.43245  -3454227.16245  23240153.3724   23240158.3064
      1708.5004
    388541.95943    272328.64145  23828448.3334   23828455.0244
     -3641.9374
   -337429.57643  -2103768.22545  23675224.3334   23675230.3214
      2054.8754
   1701841.13445  -4952638.52546  22732451.6694   22732456.5444
     -3512.9694
    303823.55643   -202873.17445  24224410.6144   24224414.4814
     -3428.1874
                                  24738790.3494

    780964.77446  -7517495.62546  20968052.8174   20968057.7164
     -1409.7814
    599352.43145  -7924777.83946  22238030.3334   22238034.4814
      -916.3594
  -1138425.00145 -13538068.92046  21394838.0674   21394842.5564
      1866.1564
 97  9 17  1  9 30.0010000  0  9G24G29G22G14G25G13G16G 4G18
   -507761.46945  -3493970.57345  23230447.8724   23230452.7004
      1691.8284
    497889.77343    357534.68145  23849257.6614   23849263.0754
     -3647.7194
   -398850.10142  -2151628.34245  23663534.4354   23663538.7824
      2040.0474
   1807378.22145  -4870401.87346  22752535.2394   22752539.9154
     -3522.7504
     37792.22053   -122621.62945  24244010.2474   24244014.1854
     -3437.5314
                                  24720147.7944
      3262.9064
    823544.00446  -7484317.00946  20976155.0134   20976159.8644
     -1428.5314
    627136.40045  -7903127.99446  22243317.4114   22243321.6424
      -935.8594
  -1194196.10845 -13581526.92746  21384225.5754   21384229.8644
      1851.9844
 97  9 17  1 10  0.0010000  0  9G24G29G22G14G25G13G16G 4G18
   -558258.14944  -3533318.62845  23220838.5364   23220844.1494
      1674.9064
    607414.60943    442878.68945  23870099.0834   23870105.4234
     -3653.6254
    -22303.10352  -2199140.23945  23651931.1304   23651937.8334
      2025.2194
   1913215.54945  -4787931.24546  22772675.1464   22772680.5134
     -3532.6724
    141068.45843    -42146.60645  24263662.6064   24263667.2004
     -3447.1564
    -16289.72751                  24701534.5284
      3258.3444
    866678.99846  -7450705.33146  20984363.4664   20984368.5404
     -1446.7814
    655521.15645  -7881010.02446  22248718.7634   22248723.4274
      -956.2814
  -1249537.73045 -13624650.24446  21373693.9114   21373698.4704
      1837.8594
 97  9 17  1 10 30.0010000  0  9G24G29G22G14G25G13G16G 4G18
   -608250.40445  -3572273.63445  23211325.7164   23211331.3644
      1657.8914
     40239.64653    528361.52345  23890975.7314   23890980.5244
     -3659.8124
    -82825.75243  -2246300.76345  23640416.4274   23640421.8294
      2009.3754
   2019346.96745  -4705231.46246  22792871.4584   22792876.0634
     -3542.6874
    244625.10043     38546.85545  24283368.4424   24283372.4974
     -3456.7664
   -113967.72442                  24682948.0994
      3253.5314
    910358.78046  -7416669.13846  20992675.5524   20992680.4274
     -1465.2974
    684532.61345  -7858403.69946  22254239.5914   22254243.2354
      -977.9224
  -1304459.28146 -13667446.25046  21363242.7164   21363247.2044
      1823.4534
 97  9 17  1 11  0.0010000  0  9G24G29G22G14G25G13G16G 4G18
   -657742.12145  -3610838.57745  23201907.5834   23201913.2554
      1641.5004
    150105.90643    613971.56245  23911882.8724   23911887.2204
     -3664.7664
   -142886.91942  -2293101.63745  23628985.1854   23628989.7904
      1994.8284
   2125762.36245  -4622310.40746  22813122.4894   22813127.1424
     -3551.8124
    348452.84843    119451.52345  24303126.6774   24303132.1614
     -3465.0474
    -35753.34552    -32927.43155  24664383.4974   24664389.7084
      3249.7504
    954569.50346  -7382219.24146  21001088.6614   21001093.4664
     -1482.0624
    714177.15845  -7835304.05546  22259880.3414   22259884.6064
      -998.3444
  -1358961.20445 -13709915.26946  21352871.2784   21352876.0364
      1809.8134
 97  9 17  1 11 30.0010000  0  9G24G29G22G14G25G13G16G 4G18
   -706736.14445  -3649015.71445  23192584.4664   23192590.5134
      1625.2814
    260139.35842    699711.89845  23932820.8724   23932825.0324
     -3670.3594
   -202505.69342  -2339557.85145  23617640.2474   23617643.1534
      1980.1884
   2232473.55145  -4539158.85546  22833428.0054   22833432.5404
     -3561.8754
    452542.54442    200560.33445  24322934.2474   24322940.5994
     -3473.8754
    -55184.68651   -108837.03945  24645845.2944   24645850.7904
      3245.2194
    999296.04546  -7347367.39446  21009600.0364   21009604.9354
     -1499.1874
    744449.40845  -7811715.30146  22265640.9974   22265645.5564
     -1019.3754
  -1413030.56545 -13752047.22946  21342582.2244   21342586.7824
      1795.2504
 97  9 17  1 12  0.0010000  0  9G24G29G22G14G25G13G16G 4G18
   -755247.85145  -3686817.05745  23183353.1854   23183358.2714
      1609.1724
    370332.29243    785576.51345  23953790.0994   23953794.0134
     -3675.3914
   -261680.08342  -2385667.65745  23606380.2314   23606386.3254
      1965.0164
   2339477.86045  -4455778.90646  22853789.9504   22853794.9664
     -3571.3594
     17406.47752    281877.36045  24342791.5994   24342797.1774
     -3482.7814
                                  24627329.9424
      3241.5004
   1044531.65546  -7312118.87546  21018207.4114   21018212.9424
     -1516.2974
    775345.34445  -7787640.55846  22271520.0364   22271523.6224
     -1039.8444
  -1466662.02545 -13793837.97246  21332376.4744   21332381.1854
      1780.4384
 97  9 17  1 12 30.0010000  0  9G24G29G22G14G25G13G16G 4G18
   -803282.42744  -3724246.58545  23174211.7714   23174216.3064
      1593.1724
    480668.21442    871552.51145  23974786.1304   23974790.1734
     -3680.2194
   -320400.83542  -2431424.09845  23595207.2554   23595209.5874
      1949.7814
   2446762.55145  -4372180.47046  22874205.2714   22874210.1924
     -3580.9374
    122012.40542    363388.44145  24362698.0604   24362702.3844
     -3490.9844
                                  24608836.5524
      3238.2504
   1090278.27845  -7276472.16046  21026913.1064   21026918.6964
     -1533.4694
    806833.48745  -7763104.35346  22277512.8104   22277516.6774
     -1059.2504
  -1519848.52845 -13835281.99246  21322256.1774   21322260.3964
      1765.3444
 97  9 17  1 13  0.0010000  0  9G24G29G22G14G25G13G16G 4G18
   -850821.91445  -3761290.32545  23165165.6614   23165171.2284
      1576.0784
    591158.82242    957649.02045  23995812.1304   23995814.8964
     -3685.9534
    -21311.79253  -2476826.38245  23584117.5214   23584123.1224
      1934.8444
   2554342.15345  -4288352.23546  22894676.9584   22894682.5244
     -3591.0784
     38479.49852    445103.55145  24382654.4744   24382661.3174
     -3500.1564
    -35585.93052   -336044.30245  24590360.1064   24590363.5874
      3234.6414
   1136546.55646  -7240418.95946  21035717.2394   21035722.4314
     -1551.0164
     24639.98655  -7738112.80146  22283616.0214   22283619.9114
     -1078.9844
  -1572573.36046 -13876366.26346  21312222.6144   21312226.8924
      1749.7504
 97  9 17  1 13 30.0010000  0  9G24G29G22G14G25G13G16G 4G18
   -897842.08844  -3797929.40345  23156217.4894   23156222.5524
      1559.0004
    701824.97942   1043882.35645  24016870.9114   24016875.4464
     -3691.2344
    -79119.59842  -2521871.46245  23573116.5834   23573121.2944
      1919.1884
   2662231.19544  -4204282.87145  22915208.0674   22915213.4814

     -3601.0164                   24402663.2944

     -3509.3124                   24571903.5834
      3231.1254
   1183348.61745  -7203949.84346  21044624.0754   21044629.2904
     -1568.5944
     57317.66545  -7712649.68846  22289833.9744   22289839.1884
     -1099.1724
  -1624831.69245 -13917087.03546  21302278.4504   21302282.8334
      1734.5944
 97  9 17  1 14  0.0010000  0  8G24G22G14G25G13G16G 4G18
   -944341.20443  -3834162.46145  23147369.7634   23147375.5404
      1540.9694
   -136441.83842  -2566538.07445  23562209.8804   23562215.5174
      1902.3284
     82967.27554  -4119981.30145  22935795.7784   22935799.8104
     -3611.4064
     80844.73051    609182.39945  24422723.9424   24422727.0364
     -3518.5784
    -35502.53651   -487098.33345  24553469.1694   24553468.4784
      3226.9534
   1230673.05645  -7167073.64946  21053629.4894   21053634.7164
     -1586.2034
     90602.35745  -7686713.56346  22296168.0444   22296172.5094
     -1119.7344
  -1676639.13545 -13957456.45246  21292419.4584   21292423.6424
      1719.1884
 97  9 17  1 14 30.0010000  0 10G24G29G22G14G25G13G16G19G 4G18
   -990312.02445  -3869983.85445  23138621.3884   23138627.3174
      1523.4224
     62894.78352                  24059075.0054
     -3701.6094
   -193270.83442  -2610820.40045  23551394.2314   23551399.9744
      1886.1094
    191461.51645  -4035440.33446  22956441.2634   22956445.9274
     -3621.8124
    186530.69242    691535.11545  24442835.1534   24442843.7124
     -3527.6564
    -74163.37352   -562489.53845  24535060.3174   24535061.2554
      3222.8594
   1278508.58746  -7129799.21846  21062731.9584   21062737.2674
     -1603.0944
                                  24946820.5834
      3460.9844
     12502.15655  -7660295.52946  22302619.0134   22302623.1614
     -1140.7344
  -1727993.50146 -13997472.83146  21282647.0284   21282651.4814
      1704.2974
 97  9 17  1 15  0.0010000  0 10G24G29G22G14G25G13G16G19G 4G18
  -1035753.78945  -3905393.03445  23129974.0604   23129979.1344
      1506.1254
     18526.80752                  24080219.5444
     -3706.1724
                                  23540672.1144
      1870.1094
    300255.37845  -3950665.94946  22977144.1304   22977148.5714
     -3631.1094
     81264.44952    774108.33645  24463000.3964   24463006.3494
     -3536.6254
    -35409.01652   -637780.56545  24516672.0214   24516672.3604
      3218.8754
   1326845.14646  -7092134.37446  21071930.5214   21071935.8174
     -1619.2814
    -17285.39251                  24927073.4814
      3457.6884
     47037.76245  -7633384.72946  22309191.6224   22309195.2434
     -1161.5784
  -1778910.45646 -14037148.36646  21272957.8804   21272962.1694
      1690.2194
 97  9 17  1 15 30.0010000  0 10G24G29G22G14G25G13G16G19G 4G18
  -1080677.45245  -3940398.43845  23121425.8724   23121431.2284
      1489.3594
    129785.95942     20233.99255  24101390.7164   24101396.2594
     -3710.6564
    -53970.57743  -2698237.61345  23530046.1144   23530049.6184
      1853.1254
    409338.83245  -3865665.87346  22997902.0284   22997906.5174
     -3640.6724
    187499.16142    856888.64945  24483216.2784   24483220.4154
     -3545.2034
   -131907.67942   -712974.22545  24498309.0214   24498313.1814
      3214.8594
   1375678.77846  -7054082.19546  21081223.1534   21081228.4504

     -1635.8914                   24907344.0284
      3453.7504
     82203.20945  -7605983.08746  22315883.4354   22315888.2044
     -1182.2034
  -1829396.07146 -14076487.79546  21263350.9274   21263354.7244
      1675.8754
 97  9 17  1 16  0.0010000  0 10G24G29G22G14G25G13G16G19G 4G18
  -1125115.85045  -3975025.76145  23112968.9664   23112974.7904
      1473.2664
     18568.11752    107022.69345  24122585.8104   24122589.5604
     -3714.5784
     -9191.24552  -2741371.09845  23519511.9034   23519519.2784
      1837.3134
    518694.73945  -3780453.51146  23018712.5674   23018717.4074
     -3649.5164
                                  24503476.5524
     -3552.5944
                                  24479968.3024
      3211.5314
   1425000.63746  -7015649.57646  21090609.0284   21090614.3254

     -1652.2664                   24887635.8494
      3450.7034
    117959.92845  -7578120.71846  22322687.1224   22322691.7744
     -1201.3754
  -1879463.31046 -14115501.22046  21253823.1694   21253827.4814
      1661.8444
 97  9 17  1 16 30.0010000  0 10G24G29G22G14G25G13G16G19G 4G18
  -1169053.14145  -4009262.61745  23104608.6464   23104614.7864
      1455.9224
    130094.41742    193926.32345  24143807.5674   24143812.3134
     -3720.3284
    -64060.86643  -2784126.57145  23509072.0364   23509077.2744
      1820.8754
    628329.27545  -3695024.03446  23039574.5364   23039578.7784
     -3659.1724
     17798.84052   1023001.66545  24523782.7634   24523786.9464
     -3561.2344
    -16033.90852   -863102.45745  24461646.8494   24461655.8764
      3206.9384
   1474838.95846  -6976814.53446  21100092.5364   21100097.7164

     -1670.2344     -37920.85151  24867950.4814
      3446.7664
    154306.92345  -7549798.37746  22329603.4974   22329607.5754
     -1221.5164
  -1929084.11346 -14154166.76446  21244380.4814   21244385.1464
      1646.3754
 97  9 17  1 17  0.0010000  0 10G24G29G22G14G25G13G16G19G 4G18
  -1212474.98744  -4043097.82045  23096345.6384   23096351.2864
      1439.0164
    241776.83042    280951.53645  24165061.0754   24165064.5914
     -3725.1874
   -118445.29842  -2826504.07545  23498722.7314   23498727.8534
      1804.7504
    738229.73145  -3609387.34845  23060488.1774   23060493.2044

     -3667.5164                   24544134.9664
     -3568.6254
   -112179.54041   -938021.05445  24443351.5604   24443356.7284
      3202.8914
   1525203.84245  -6937569.16646  21109676.9034   21109681.8964
     -1687.3594
    -17219.77051     -2681.31955  24848279.8334   24848284.6384
      3444.1884
    191235.07745  -7521023.20846  22336631.3804   22336635.8804
     -1240.3444
  -1978251.61945 -14192479.11346  21235024.5604   21235028.6264
      1631.4534
 97  9 17  1 17 30.0010000  0 10G24G29G22G14G25G13G16G19G 4G18
  -1255379.25245  -4076529.70346  23088181.2164   23088185.8804
      1421.5314
                                  24186344.0214
     -3730.8124
   -172334.21043  -2868495.40045  23488466.8564   23488470.8994
      1788.3284
    848403.75944  -3523537.48945  23081453.8414   23081459.5014

     -3677.0164                   24564529.7244
     -3576.5164
    -15989.23751  -1012836.95145  24425077.6384   24425078.0834
      3197.6724
   1576096.50045  -6897912.55646  21119360.9974   21119365.9544
     -1705.0944
    -17201.89751    -83151.06145  24828627.1694   24828633.1814
      3440.9694
    228740.77245  -7491797.99446  22343768.2784   22343772.4034
     -1259.7504
  -2026957.48145 -14230431.72646  21225756.1064   21225760.2674
      1616.0004
 97  9 17  1 18  0.0010000  0 10G24G29G22G14G25G13G16G19G 4G18
  -1297753.50245  -4109548.57646  23080117.2084   23080122.5874
      1403.5004
    108274.87042                  24207659.5524
     -3736.3124
   -225742.10943  -2910111.92745  23478304.8724   23478309.3724
      1772.3134
    958853.62545  -3437472.67846  23102471.1614   23102476.2824
     -3686.0784
     82365.70652   1273557.13745  24584971.8414   24584976.4584
     -3584.3284
    -73491.16852  -1087544.35745  24406834.0134   24406837.8104
      3193.6724
   1627515.74546  -6857845.61446  21129146.1064   21129151.2984

     -1722.6254                   24808992.4504
      3438.2974
    266825.95045  -7462121.23446  22351014.8174   22351018.1464
     -1279.1564
  -2075206.32746 -14268028.21246  21216574.9424   21216579.3254
      1600.6884
 97  9 17  1 18 30.0010000  0 10G24G29G22G14G25G13G16G19G 4G18
  -1339594.96345  -4142152.30346  23072155.0364   23072160.7314
      1385.6564
    220440.45543     14572.42955  24229005.1694   24229009.8804
     -3741.5474
   -278676.15943  -2951359.17745  23468230.7784   23468237.0014
      1756.2814
   1069561.49745  -3351206.85146  23123537.9504   23123543.1654
     -3694.8754
    190008.95542   1357434.93645  24605454.6384   24605460.8254
     -3592.2504
   -169243.54442  -1162156.50145  24388613.7944   24388619.4544
      3189.6094
   1679438.66946  -6817386.19946  21139026.5134   21139031.5524

     -1739.0314     -99676.47742  24789368.6854
      3435.9534
    305490.10945  -7431993.32546  22358373.1534   22358377.3964
     -1298.8124
  -2123014.12046 -14305281.02846  21207476.5214   21207480.9504
      1586.3914
 97  9 17  1 19  0.0010000  0 10G24G29G22G14G25G13G16G19G 4G18
  -1380887.38945  -4174328.19946  23064297.3104   23064302.7714
      1367.1564
     18725.92652    102095.07545  24250377.8024   24250383.3214
     -3746.4224
   -331110.67943  -2992217.24445  23458253.8334   23458259.5404
      1739.1254
   1180548.46745  -3264723.52945  23144658.7164   23144663.8254
     -3704.4694
     61162.75752   1441503.30645  24625985.8254   24625990.4894
     -3600.3754
   -264869.46341  -1236670.14145  24370415.9974   24370423.0214
      3185.4064
   1731863.62845  -6776535.59446  21149003.1774   21149008.8024

     -1756.1564                   24769761.5834
      3433.0314
    344756.05245  -7401396.50446  22365844.6694   22365848.2314
     -1319.1564
  -2170389.01845 -14342196.54146  21198461.3644   21198465.5244
      1571.9064
 97  9 17  1 19 30.0010000  0 10G24G29G22G14G25G13G16G19G 4G18
  -1421638.81444  -4206082.54245  23056542.0994   23056547.3724
      1349.3444
    131175.13042    189717.81045  24271776.3414   24271779.3414
     -3750.2814
   -383042.19542  -3032683.33845  23448370.9424   23448376.8844
      1722.7344
   1291817.29844  -3178020.57145  23165832.2394   23165837.0214
     -3713.4844
    169280.00642   1525750.51745  24646560.3564   24646565.7474
     -3607.6254
   -360381.62641  -1311095.18745  24352239.4114   24352245.9974
      3181.8594
   1784797.70945  -6735288.26346  21159075.7244   21159080.6694
     -1773.0164
    -37736.65451    -45450.31155  24750171.3024   24750179.9784
      3430.3134
    384624.31145  -7370330.34146  22373431.5914   22373436.2904
     -1338.9694
  -2217341.46645 -14378782.85546  21189526.9664   21189531.4544
      1558.0164
 97  9 17  1 20  0.0010000  0  9G24G29G22G14G25G16G19G 4G18
  -1461853.48745  -4237418.64546  23048889.6064   23048895.3964
      1331.3914
                                  24293194.8724
     -3753.5944
   -434474.83243  -3072760.65045  23438583.1854   23438588.7984
      1705.7194
   1403345.08745  -3091115.82246  23187055.3884   23187059.6064
     -3722.0164
     61412.02352   1610168.42245  24667174.7004   24667181.0634
     -3615.1094
   1838238.70246  -6693645.93046  21169245.2714   21169250.3684
     -1790.0314
   -140606.69342   -125608.74745  24730594.5994   24730600.7284
      3427.2814
    425085.09945  -7338802.46546  22381131.9114   22381135.7904
     -1358.7664
  -2263867.91046 -14415037.22746  21180673.2864   21180677.3294
      1543.2034
 97  9 17  1 20 30.0010000  0 11G24G29G22G14G25G13G16G19G 6G 4G18
     -6572.80355  -4268332.13445  23041341.0054   23041346.5484
      1313.4064
     18781.97552    365214.19945  24314634.0284   24314634.5324
     -3757.3914
   -485384.37943  -3112430.45345  23428895.9274   23428900.6854
      1688.1724
   1515140.42144  -3004002.61345  23208328.9814   23208333.0134
     -3731.0474
                                  24687834.4274
     -3623.0314
   -149343.20852  -1459693.69945  24315951.5214   24315954.3454
      3174.0314
   1892199.56945  -6651598.50546  21179513.8644   21179519.1494
     -1807.4374
    -17113.80751   -205680.37245  24711040.6694   24711050.9624
      3423.3754
     -7900.20151                  25291337.0604
      1579.1414
    466153.70045  -7306800.98146  22388946.7944   22388951.3534
     -1379.1874
  -2309928.35246 -14450928.47646  21171908.7394   21171912.6884
      1527.4064
 97  9 17  1 21  0.0010000  0 11G24G29G22G14G25G13G16G19G 6G 4G18
    -29966.89255  -4298836.33346  23033891.0524   23033897.2044
      1296.2814
    131544.80542    453081.22845  24336092.4664   24336099.7124
     -3760.6094
   -535774.16143  -3151695.17445  23419307.0524   23419312.7004
      1671.0634
   1627189.30145  -2916691.83546  23229651.8414   23229657.0324
     -3738.9694
    105168.97842   1779545.03645  24708538.6774   24708545.3104
     -3630.3754
   -244499.82542  -1533841.66645  24297843.4814   24297847.1854
      3169.4534
   1946681.28446  -6609145.22446  21189881.2634   21189886.5134
     -1824.9374
                                  24691506.4664

      3419.8284                   25282366.5994
      1563.6564
    507818.62545  -7274334.80046  22396874.8494   22396879.3724
     -1398.5784
  -2355512.77046 -14486448.78046  21163233.8414   21163238.2594
      1511.2664
 97  9 17  1 21 30.0010000  0 11G24G29G22G14G25G13G16G19G 6G 4G18
    -68605.07645  -4328943.99746  23026538.5524   23026544.4704
      1279.0944
    244421.48142    541037.04745  24357571.8254   24357574.2864
     -3764.9064
   -585654.05643  -3190562.61445  23409815.0914   23409820.1534
      1653.9064
   1739470.71245  -2829199.85945  23251018.5524   23251023.6734
     -3746.8124
    214195.03442   1864500.40145  24729286.1924   24729292.0404
     -3638.4224
   -339508.58442  -1607874.45645  24279765.0214   24279772.2554
      3164.0634
   2001682.27946  -6566287.31446  21200347.5054   21200352.7314
     -1842.1094
    -17080.51552   -365570.15245  24671993.7244   24671998.4704

      3415.9384                   25273484.7164
      1548.1094
    550060.85445  -7241418.79846  22404913.2944   22404917.4314
     -1418.0004
  -2400599.87646 -14521581.58746  21154654.2634   21154658.5054
      1494.1564
 97  9 17  1 22  0.0010000  0 11G24G29G22G14G25G13G16G19G 6G 4G18
   -106721.29245  -4358644.94346  23019284.8804   23019290.1064
      1262.0784
    357425.89742    629092.44845  24379076.1384   24379080.6144
     -3768.6724
   -635022.43143  -3229031.45245  23400420.4814   23400425.5674
      1637.4224
   1851997.13945  -2741516.94545  23272430.9974   23272436.5404
     -3754.9064
    323467.91642   1949648.00145  24750079.2634   24750082.8724
     -3646.3124
   -434349.74642  -1681776.55345  24261715.6384   24261719.3294
      3158.6094
   2057196.60045  -6523029.40746  21210911.0604   21210916.1694
     -1858.7034
   -119508.10841   -445383.77945  24652500.5604   24652504.8724
      3412.6724
    -26123.79651    -34797.50254  25264689.9114   25264692.8764
      1532.2664
    592889.43145  -7208045.89246  22413063.0364   22413067.7124
     -1437.1414
  -2445171.81546 -14556312.96546  21146172.2944   21146176.6534
      1477.5784
 97  9 17  1 22 30.0010000  0 11G24G29G22G14G25G13G16G19G 6G 4G18
   -144323.65545  -4387945.46546  23012129.4424   23012135.1034
      1244.7194
     41494.03752    717246.27945  24400604.8174   24400609.8104
     -3773.3754
    -37421.69153  -3267111.93245  23391120.3564   23391125.0914
      1620.7194
   1964769.52644  -2653642.41645  23293890.2474   23293895.3334
     -3763.2344
     83973.41452   2034979.28545  24770918.6464   24770921.6694
     -3654.1254
   -529014.10742  -1755540.95145  24243703.7864   24243709.7284
      3152.6094
   2113213.14045  -6479380.16346  21221571.1774   21221576.6034
     -1875.6564
   -221829.72941   -525114.80345  24633030.1774   24633036.3884
      3408.9224
                                  25255989.3804
      1516.5944
    636301.19245  -7174218.55046  22421323.8104   22421328.1924
     -1456.8444
  -2489257.19046 -14590665.20546  21137783.2004   21137787.2674
      1461.7194
 97  9 17  1 23  0.0010000  0 11G24G29G22G14G25G13G16G19G 6G 4G18
   -181399.76945  -4416835.92146  23005074.7554   23005080.5094
      1227.2034
    154756.94342    805503.06745  24422158.0444   24422163.5634
     -3777.3444
    -85794.71244  -3304805.18445  23381915.8644   23381920.6924
      1604.3754
   2077788.95945  -2565575.34445  23315398.0054   23315403.5954
     -3771.2504
    193712.31342   2120490.04045  24791800.3964   24791806.9814
     -3661.6414
    -15737.49552  -1829177.61545  24225719.4274   24225723.9854
      3147.6884
   2169733.08746  -6435338.64746  21232327.0444   21232332.0954
     -1892.1564
   -324043.27142   -604761.71945  24613579.1694   24613585.7204
      3405.4844
    -43751.22141   -105705.57545  25247374.8104   25247380.3884
      1501.5944
    680295.91645  -7139936.97146  22429696.1224   22429701.0324
     -1476.0164
  -2532878.90846 -14624656.14146  21129482.1854   21129486.5674
      1446.6254
 97  9 17  1 23 30.0010000  0 11G24G29G22G14G25G13G16G19G 6G 4G18
   -217930.70145  -4445301.57846  22998123.2084   22998128.3994
      1208.5784
    268147.17942    893859.11745  24443734.7944   24443741.7354
     -3781.4064
   -133662.19843  -3342104.49845  23372805.8804   23372812.1384
      1587.2504
   2191067.32945  -2477306.52645  23336954.2164   23336959.5834
     -3780.3284
    303685.41942   2206183.32745  24812728.4974   24812731.9784
     -3669.2664
    -72319.66152  -1902695.32245  24207764.8884   24207769.6694
      3142.8444
   2226758.39146  -6390903.34946  21243178.4034   21243183.6184
     -1909.1094
   -426138.38542   -684316.28645  24594150.0214   24594153.0324
      3401.2814
    -25336.90951   -140623.53445  25238846.6694   25238852.9974
      1486.2814
    724884.08545  -7105192.94546  22438180.8644   22438185.1184
     -1496.2504
  -2576042.15746 -14658289.83246  21121268.5914   21121272.4814
      1431.5474
 97  9 17  1 24  0.0010000  0 11G24G29G22G14G25G13G16G19G 6G 4G18
   -253906.54745  -4473334.69846  22991276.9974   22991281.4504
      1190.1094
     18921.39852                  24465333.2634
     -3785.3284
   -181017.36143  -3379004.58445  23363796.0054   23363801.7714
      1569.8754
   2304613.10944  -2388829.33345  23358560.8564   23358565.8254
     -3789.0314
    413872.16042   2292042.99745  24833696.8724   24833704.9034
     -3676.2664
   -166534.57342  -1976109.50545  24189836.5284   24189839.1304
      3138.2344
   2284292.60846  -6346071.50746  21254126.8024   21254132.0054
     -1926.3284
   -528110.44142   -763774.88945  24574747.4034   24574751.7984
      3397.1414
    -16204.82551   -175180.80543  25230405.8884   25230418.3724
      1470.6094
    770075.33145  -7069979.01246  22446780.8724   22446785.0914
     -1516.2194
  -2618768.95646 -14691583.43646  21113137.3494   21113141.8024
      1417.0634
 97  9 17  1 24 30.0010000  0 11G24G29G22G14G25G13G16G19G 6G 4G18
   -289329.90045  -4500937.30046  22984535.4504   22984541.0874
      1171.7034
    132553.28742                  24486956.0914
     -3789.6874
   -227837.53244  -3415487.81045  23354886.3024   23354890.8964
      1551.7814
   2418410.79145  -2300155.83845  23380215.9034   23380220.7434
     -3797.2344
     62577.42252   2378064.46845  24854703.6854   24854710.0134
     -3683.0004
   -260611.11643  -2049415.84445  24171934.9814   24171940.2084
      3134.0784
   2342342.75346  -6300837.63446  21265173.1534   21265178.3924
     -1943.3124
   -629955.31942   -843134.50045  24555367.1384   24555373.6064
      3392.9534
    -16035.31951                  25222058.1534
      1455.0634
    815862.49545  -7034300.70646  22455493.9354   22455497.9784
     -1535.8444
  -2661051.24846 -14724530.67146  21105092.1464   21105096.4814
      1401.9224
 97  9 17  1 25  0.0010000  0 11G24G29G22G14G25G13G16G19G 6G 4G18
   -324207.87845  -4528114.92846  22977898.7714   22977904.0214
      1153.3594
     64463.80452                  24508600.1064
     -3793.6254
   -274122.90143  -3451554.29645  23346077.2004   23346081.9234
      1533.6094
   2532447.51745  -2211296.08545  23401916.5674   23401923.2474
     -3805.4374
    173161.04442   2464233.47445  24875745.6774   24875752.3214
     -3689.4224
   -354579.55942  -2122638.00545  24154052.2244   24154055.7164
      3130.0634
   2400887.24846  -6255218.55746  21276313.6224   21276318.8374
     -1959.8284
   -731690.85342   -922408.83545  24536006.7474   24536014.1924
      3389.1724
    -59451.17441                  25213796.7004
      1439.0784
    862221.78845  -6998176.59446  22464315.2474   22464320.1344
     -1555.1414
  -2702876.29346 -14757121.61346  21097132.5134   21097136.9544
      1386.1564
 97  9 17  1 25 30.0010000  0 11G24G29G22G14G25G13G16G19G 6G 4G18
   -358540.76245  -4554867.81746  22971365.3414   22971370.8254

      1135.3134                   24530268.4974
     -3797.5474
   -319862.77943  -3487195.73845  23337373.4034   23337379.0054
      1515.6254
   2646723.15045  -2122250.16845  23423662.3644   23423667.3804
     -3813.0624
    283925.65142   2550543.50045  24896825.3644   24896828.3064
     -3695.0164
                                  24136195.9034
      3125.8134
   2459925.59846  -6209214.65946  21287548.4194   21287553.8454
     -1976.1414
   -833317.06842  -1001598.05345  24516666.7784   24516672.7314
      3385.7974
                                  25205626.7164
      1422.5784
    909160.28945  -6961601.15746  22473247.7244   22473252.4354
     -1574.2814
  -2744232.84746 -14789347.48846  21089262.8494   21089267.5484
      1370.6414
 97  9 17  1 26  0.0010000  0 11G24G29G22G14G25G13G16G19G 6G 4G18
   -392321.09245  -4581190.15246  22964937.1144   22964942.2004
      1117.0634
     19005.05552    139115.37555  24551963.2244   24551970.0834
     -3801.9694
   -365056.19043  -3522411.40145  23328773.1144   23328777.1694
      1497.5784
   2761233.67945  -2033021.22345  23445453.7314   23445459.4854
     -3820.4064
                                  24917937.4504
     -3700.8444
    -90562.73542  -2268766.63245  24118366.7004   24118370.0524
      3120.5784
   2519458.10646  -6162825.70246  21298877.3254   21298882.4814
     -1992.1874
   -934829.24842  -1080698.36145  24497349.4114   24497353.7124
      3382.1564
     -7031.94451                  25197555.5604
      1405.5634
    956682.82745  -6924570.61346  22482290.4814   22482294.5364
     -1593.4224
  -2785101.88846 -14821193.49146  21081485.8414   21081490.3534
      1354.2974
 97  9 17  1 26 30.0010000  0 11G24G29G22G14G25G13G16G19G 6G 4G18
   -425559.97045  -4607090.55746  22958613.2314   22958618.0244
      1098.6254
    133121.15742    228036.95045  24573679.0364   24573685.1064
     -3805.7344
   -409718.78143  -3557213.37445  23320274.5834   23320280.6304
      1479.7504
   2875951.80744  -1943630.51645  23467282.9194   23467288.7434
     -3827.8914
     62980.16652   2723572.37245  24939080.3644   24939085.1464
     -3706.7194
   -184110.69642  -2341661.12045  24100565.2474   24100567.1814
      3115.7664
   2579451.44646  -6116077.64746  21310293.3414   21310299.0364
     -2007.6254
  -1036249.04342  -1159726.68545  24478050.8494   24478057.1064
      3378.9224
    -48956.54642                  25189578.1304
      1389.2664
   1004769.87245  -6887100.20146  22491441.3564   22491445.5994
     -1612.6724
  -2825491.43246 -14852665.86046  21073800.0914   21073804.3454
      1338.0634
 97  9 17  1 27  0.0010000  0 11G24G29G22G14G25G13G16G19G 6G 4G18
   -458242.16345  -4632557.18846  22952392.7714   22952397.7044
      1080.3284
     64737.10152    317044.95745  24595415.6304   24595419.7204
     -3809.4694
   -453847.02543  -3591599.00945  23311876.8644   23311882.5364
      1462.1414
   2990902.33844  -1854058.68545  23489157.7084   23489162.2904
     -3835.3124
                                  24960259.7864
     -3712.9694
   -277507.15543  -2414437.53445  24082792.7314   24082795.3104
      3110.4224
   2639915.85846  -6068962.53346  21321799.3884   21321804.6034
     -2023.3754
  -1137563.29242  -1238672.89045  24458769.8104   24458774.3334
      3375.3134
    -90390.72142                  25181694.6224
      1373.1884
   1053440.56545  -6849174.99246  22500703.4744   22500707.4704
     -1632.0624
  -2865394.12346 -14883758.85546  21066206.7714   21066211.2124
      1322.3134
 97  9 17  1 27 30.0010000  0 11G24G29G22G14G25G13G16G19G 6G 4G18
   -490386.59445  -4657604.80246  22946276.2084   22946281.3884
      1061.7034
    179067.69342    406133.72345  24617171.7004   24617176.8924
     -3813.4064
   -497457.26144  -3625580.99045  23303579.6614   23303585.3804
      1444.4694
   3106057.61345  -1764327.31945  23511071.4894   23511076.3174
     -3842.4224
    107759.92542   2897161.48845  24981472.7394   24981478.4114
     -3719.7034
   -370746.82142  -2487091.80245  24065048.1924   24065050.6304
      3104.7664
   2700847.89946  -6021483.02446  21333394.5214   21333399.7714
     -2039.5164
  -1238776.75642  -1317540.39345  24439512.0214   24439517.2474
      3371.4694
   -131359.46542                  25173897.5914
      1357.2974
   1102679.63345  -6810806.89546  22510073.5754   22510077.8644
     -1651.1414
  -2904836.41346 -14914493.10046  21058701.4974   21058705.9154
      1306.2504
 97  9 17  1 28  0.0010000  0 11G24G29G22G14G25G13G16G19G 6G 4G18
   -521957.90545  -4682205.81146  22940267.7314   22940273.3564
      1043.0314
    293526.89942    495322.67845  24638952.3024   24638957.6104
     -3817.1724
   -540520.45844  -3659136.68045  23295383.7084   23295387.9624
      1426.0944
   3221440.70244  -1674418.45845  23533028.0444   23533033.8924
     -3849.9374
     18626.55952   2984197.76945  25002727.0674   25002730.8414
     -3726.8914
   -463800.38043  -2559601.04545  24047341.2474   24047345.7354
      3098.7814
   2762274.84646  -5973617.88046  21345083.9974   21345088.8844
     -2055.7814
    -16836.31152  -1396308.35245  24420275.3104   24420282.8134
      3367.4534
                                  25166192.6854
      1341.4224
   1152494.99545  -6771989.74946  22519552.9744   22519557.1104
     -1669.9064
  -2943782.86846 -14944840.98146  21051289.8104   21051294.0524
      1290.1564
 97  9 17  1 28 30.0010000  0 11G24G29G22G14G25G13G16G19G 6G 4G18
   -552975.25345  -4706375.16546  22934366.3254   22934371.3534
      1025.1564
    408093.36742    584595.09645  24660752.6924   24660759.2674
     -3820.2504
   -583032.95244  -3692263.31045  23287294.3174   23287298.8064
      1408.5004
   3337058.16044  -1584326.95745  23555029.5134   23555035.8174
     -3857.7194
     18660.24951   3071400.87445  25024021.2004   25024027.1534
     -3733.4694
    -52611.73453  -2631978.40045  24029665.8884   24029670.5054
      3093.7504
   2824193.99446  -5925369.19546  21356866.5364   21356871.8214
     -2072.0004
   -117802.19542  -1474982.95045  24401061.0674   24401067.5014
      3363.7194
    -30632.61051                  25158579.7554
      1326.2194
   1202866.48345  -6732739.24646  22529138.1384   22529142.6494
     -1687.9064
  -2982253.72146 -14974818.26346  21043969.1144   21043973.2984
      1274.7664
 97  9 17  1 29  0.0010000  0 11G24G29G22G14G25G13G16G19G 6G 4G18
   -583441.65445  -4730115.23146  22928568.0054   22928572.6574
      1006.1564
    522772.17242    673955.30845  24682576.8644   24682583.1224
     -3824.7664
   -625005.89444  -3724969.46345  23279308.0834   23279312.3844
      1389.9224
   3452926.15744  -1494040.25345  23577077.5054   23577083.9274
     -3866.3444
     63555.30951   3158767.96544  25045359.3174   25045367.4314
     -3740.9534
   -145323.26642  -2704221.09145  24012023.7084   24012027.5634
      3087.2974
   2886625.05546  -5876721.62346  21368746.7784   21368752.0634
     -2089.7034
   -218624.42942  -1553545.73245  24381876.7864   24381882.3884
      3358.0784
    -70163.91241                  25151056.0134
      1309.3594
   1253794.14445  -6693055.35946  22538829.6614   22538833.6224
     -1706.9374
  -3020245.01246 -15004421.86046  21036739.3724   21036743.3684
      1258.3914
 97  9 17  1 29 30.0010000  0 11G24G29G22G14G25G13G16G19G 6G 4G18
   -613342.86145  -4753414.84746  22922878.1924   22922883.8644
       986.7974
     65057.95052    763403.89745  24704419.3334   24704425.4744
     -3828.4694
   -666433.80644  -3757250.94145  23271423.5444   23271429.2514
      1371.6254
   3569036.46144  -1403564.71545  23599173.0674   23599178.3534
     -3874.6724
     63669.19652   3246293.27345  25066734.6144   25066742.1304
     -3747.5004
   -237859.09343  -2776326.89845  23994414.6384   23994418.5874
      3081.5634
   2949570.05146  -5827673.58446  21380724.8414   21380730.3844
     -2106.8754
   -319289.41242  -1631985.88945  24362719.3334   24362724.3724
      3352.5474
    -14251.06752    -26337.04255  25143631.0994   25143637.5324
      1292.3134
   1305275.02345  -6652940.39546  22548625.8804   22548630.1344
     -1725.4224
  -3057758.28646 -15033652.98046  21029601.0214   21029605.0994
      1242.1254
 97  9 17  1 30  0.0010000  0 11G24G29G22G14G25G13G16G19G 6G 4G18
   -642665.27645  -4776263.50146  22917298.1384   22917303.5754
       968.2664
    179958.57342    852936.82045  24726286.5994   24726292.9384
     -3831.3284
   -707311.59244  -3789103.74745  23263644.3644   23263649.9314
      1353.7504
   3685405.24744  -1312887.79845  23621316.8564   23621323.8564
     -3883.2194
    176185.62041   3333968.36545  25088143.8334   25088152.6854
     -3753.3754
   -330225.55642  -2848300.70945  23976837.4424   23976844.2044
      3076.4694
   3013025.98246  -5778227.41046  21392799.9194   21392805.0174
     -2123.4064
   -419785.95942  -1710294.86945  24343595.0284   24343600.3024
      3347.2344
    -52770.47442    -56352.18945  25136299.5054   25136305.9274
      1275.7814
   1357314.09245  -6612390.48546  22558528.7474   22558532.3214
     -1743.7034
  -3094790.76746 -15062509.45446  21022554.3964   21022558.5794
      1226.7504
 97  9 17  1 30 30.0010000  0 10G24G29G22G14G13G16G19G 6G 4G18
   -671415.11045  -4798665.95346  22911827.2634   22911832.8064
       948.3284
     19170.73752    942546.47945  24748171.4114   24748176.7204
     -3835.2664
   -747649.65044  -3820535.97745  23255968.8024   23255974.5674
      1335.5314
   3802040.07444  -1222003.53545  23643511.9114   23643516.1884
     -3892.1874
   -422429.86143  -2920148.18545  23959291.9814   23959297.5364
      3070.4224
   3076988.08746  -5728386.81446  21404971.5364   21404976.6574
     -2140.6874
   -520106.72742  -1788466.79645  24324504.2244   24324510.8924
      3340.7974
    -13881.55552    -85975.54945  25129064.5604   25129068.1104
      1258.8444
   1409911.25245  -6571405.69946  22568537.5364   22568541.8724
     -1762.6724
  -3131341.45746 -15090990.51446  21015598.5674   21015602.3414
      1209.9844
 97  9 17  1 31  0.0010000  0 10G24G29G22G14G13G16G19G 6G 4G18
   -699591.66445  -4820621.71046  22906466.1304   22906471.0054
       929.5164
    134252.86242   1032220.85445  24770069.3254   24770068.4114
     -3837.4064
   -787469.37344  -3851564.28645  23248391.2244   23248396.0874
      1318.4384
   3918886.45344  -1130954.48745  23665747.7394   23665753.3644
     -3897.9534
   -514482.27443  -2991877.30045  23941775.2164   23941777.7354
      3065.8284
   3141428.22346  -5678173.72746  21417234.2714   21417239.3334
     -2155.6414
   -620273.15443  -1866518.51545  24305444.0914   24305449.7864
      3336.6414
    -51419.51742   -115225.99845  25121922.6144   25121931.2084
      1243.0944
   1463036.67045  -6530009.28846  22578646.8254   22578651.3724
     -1779.4694
  -3167424.73746 -15119107.34046  21008732.2164   21008736.5754
      1195.0314
